GFSNGP_500_spd_057.txt.gz
Wind_Speed
13 15 22 25 26 27 27 26 28 25 24 16 17 18 22 22 22 23 23 23 23 23 29 31 33 34 35 36 35 35 35 36 36 39 41 43 44 49 49 51 52 54 60 61
17 16 20 24 24 28 27 27 28 30 29 23 23 23 24 24 26 27 27 26 28 26 26 29 30 30 31 32 34 35 35 37 38 40 42 44 46 50 51 52 54 56 61 61
20 18 20 21 18 22 24 27 28 28 25 25 25 26 26 26 28 30 30 29 29 29 30 30 30 30 31 33 34 35 37 39 42 43 45 48 50 52 53 54 56 58 61 60
24 24 27 13 17 21 24 21 23 25 24 25 26 28 29 28 29 31 30 30 28 27 29 29 29 30 32 33 35 37 40 42 44 46 49 51 52 53 55 56 57 57 62 64
29 27 22 18 12 14 19 17 20 22 24 26 26 28 32 33 33 32 31 28 27 27 27 28 30 30 32 34 37 39 41 43 46 49 51 52 53 54 55 56 58 61 63 67
30 29 23 15 18 18 20 15 17 23 24 26 27 28 31 32 32 30 28 26 26 27 29 30 30 32 34 36 38 41 43 46 48 51 53 54 56 57 57 58 60 62 65 69
31 29 25 20 20 21 23 20 21 25 27 27 28 30 30 30 28 27 27 27 27 28 28 30 31 34 36 38 41 44 45 48 51 53 54 56 56 56 57 59 60 64 67 70
33 32 26 19 22 24 21 23 27 29 30 29 29 29 28 27 25 25 25 25 26 28 29 31 33 36 39 42 44 47 50 52 54 55 56 55 56 57 56 58 61 65 67 70
33 32 27 24 24 26 25 25 29 32 32 31 31 29 26 26 26 24 25 27 29 30 32 35 37 40 42 45 48 51 53 55 56 56 56 56 57 57 60 64 67 70 71 72
34 29 26 27 27 27 27 29 34 33 32 32 30 30 29 26 26 27 29 30 32 34 37 39 42 43 47 49 52 55 56 56 56 56 57 59 61 62 66 71 73 76 78 80
34 27 27 27 25 27 30 35 36 33 32 30 29 28 27 28 28 30 32 34 36 39 41 43 46 49 51 53 56 57 57 57 57 58 60 62 63 67 72 77 80 81 80 82
34 31 34 30 28 30 33 37 31 29 31 28 27 28 29 30 32 34 36 38 41 43 45 48 50 52 55 57 58 58 58 59 60 61 61 62 66 72 76 78 78 79 81 85
38 37 36 33 34 34 35 36 33 31 32 31 31 32 33 34 36 37 40 43 45 47 50 52 54 56 58 58 58 59 60 60 61 60 63 68 72 76 80 78 77 79 84 88
40 39 35 37 36 36 32 33 36 34 33 32 34 35 36 37 39 42 44 47 49 52 54 55 57 58 58 59 60 62 63 61 61 65 69 74 78 82 82 79 79 83 86 87
40 40 39 37 42 40 36 33 32 32 33 34 36 38 40 42 45 47 49 52 54 55 56 57 58 59 60 61 63 63 61 64 68 72 76 81 84 81 79 81 83 85 84 81
39 40 40 41 43 38 41 42 41 39 40 40 41 44 46 49 50 51 53 56 58 58 58 58 60 61 62 63 62 63 65 68 72 77 81 83 79 79 81 84 84 81 80 78
40 40 41 42 45 42 39 45 46 48 48 50 52 52 53 56 54 52 54 57 58 57 58 61 61 61 62 63 64 67 69 72 77 81 81 78 79 82 83 81 78 77 76 75
40 41 44 46 46 45 44 49 48 48 47 49 52 54 55 51 49 56 57 55 56 60 62 61 61 62 63 64 67 70 73 78 81 78 77 79 81 81 78 75 75 73 73 74
41 44 46 48 42 38 43 44 48 47 49 54 55 46 41 57 60 57 56 58 62 62 62 62 63 64 65 67 71 74 78 78 76 76 78 80 80 75 73 74 72 71 72 72
33 39 34 37 39 43 48 51 49 42 45 47 47 54 59 59 58 58 61 62 62 62 63 64 65 66 69 72 75 77 76 74 76 78 79 77 72 72 74 72 69 70 72 72
34 30 37 44 47 44 39 32 43 43 41 53 55 56 57 56 59 60 61 61 63 64 65 67 68 71 74 77 75 73 74 76 79 79 74 69 71 73 73 68 68 70 73 70
30 30 34 34 35 41 39 40 47 52 53 54 52 53 56 59 60 61 62 63 65 67 68 71 73 76 75 74 74 75 78 79 76 70 69 71 73 73 70 67 68 71 72 67
29 33 34 37 39 43 46 48 49 48 48 51 56 59 60 60 61 62 64 66 69 71 74 75 75 74 74 75 77 78 77 72 67 68 71 73 72 70 67 66 70 71 68 63
35 38 42 44 45 43 42 44 48 51 56 57 58 59 60 62 64 66 69 71 73 75 75 75 75 76 77 78 78 72 68 68 70 72 73 72 71 68 66 68 71 68 63 59
37 37 36 37 41 44 48 52 55 56 57 57 59 62 64 66 68 70 72 74 75 76 76 76 77 78 78 74 69 69 70 72 73 73 73 72 68 66 68 69 67 62 57 53
37 39 42 46 50 53 54 55 56 58 60 62 64 66 68 70 72 74 75 75 76 77 78 79 78 75 72 72 73 74 74 74 74 73 71 67 66 67 67 65 61 56 51 48
44 48 50 53 54 55 56 58 60 62 64 66 68 70 72 73 75 75 76 78 79 79 78 76 75 75 76 76 76 76 76 75 73 70 67 68 68 66 62 59 54 48 44 44

GFSNGP_500_spd_060.txt.gz
Wind_Speed
20 19 24 23 23 26 30 27 28 21 24 24 21 24 25 25 23 23 23 23 22 24 26 25 31 37 39 39 37 36 38 40 40 40 41 41 42 43 44 45 47 48 51 54
24 22 22 22 21 26 26 28 27 26 24 27 24 28 27 26 26 25 25 27 26 26 28 28 28 31 33 33 33 33 35 36 36 38 39 40 41 43 45 47 50 52 54 57
27 24 23 17 14 19 20 21 21 24 23 26 26 24 27 26 25 26 28 31 31 29 28 29 31 33 34 34 34 34 35 35 36 37 39 40 42 45 47 51 53 55 58 59
31 26 28 13 16 18 18 18 23 24 21 21 23 22 22 24 27 27 28 30 30 29 28 28 29 30 31 33 34 35 34 35 37 38 40 43 45 47 50 54 56 57 57 58
32 28 25 19 13 15 18 17 20 19 20 20 21 21 22 24 26 27 26 26 27 27 27 26 27 28 30 32 32 33 34 36 38 40 43 45 48 51 55 57 58 59 59 60
34 32 27 15 15 17 20 9 14 20 20 21 23 23 25 26 27 27 26 24 25 25 26 27 28 29 30 31 32 34 36 38 40 43 46 50 53 56 58 59 59 59 60 62
32 32 26 18 17 19 22 8 24 22 23 24 25 26 27 28 29 29 28 26 25 25 25 26 27 28 30 32 34 36 38 41 43 47 50 53 57 58 58 58 58 59 61 63
34 34 30 19 22 24 20 22 23 25 26 29 28 27 28 30 30 28 28 27 27 27 26 27 29 31 33 34 36 39 41 45 48 51 54 57 59 59 59 59 60 61 62 63
36 33 30 30 28 25 25 26 24 26 29 30 29 29 30 30 31 30 29 30 29 28 29 31 32 34 36 38 41 43 46 49 52 55 58 60 60 60 60 61 62 63 62 65
38 34 31 31 29 27 29 30 27 29 32 30 33 33 32 31 32 32 32 31 31 32 33 34 36 38 40 42 45 48 50 53 56 59 60 60 59 60 62 64 63 62 66 71
41 36 33 35 34 31 32 31 30 31 31 30 32 34 32 30 32 31 31 31 33 35 37 38 40 42 44 47 50 52 55 57 60 61 61 60 62 64 64 62 64 68 72 77
43 39 40 41 35 30 33 34 33 34 34 36 33 34 33 32 31 32 34 35 36 38 40 41 43 45 49 52 55 57 59 61 61 61 61 63 64 63 63 66 69 73 78 82
36 41 43 41 37 35 35 35 36 38 39 40 35 35 35 33 34 36 37 38 39 41 42 45 47 51 54 56 58 60 61 62 61 63 64 64 63 64 67 69 73 78 83 85
32 34 35 39 41 41 40 37 39 38 39 36 34 39 40 37 38 40 40 41 42 44 48 50 53 56 58 60 60 62 61 62 64 65 64 64 65 67 70 74 79 83 84 83
33 34 36 40 41 43 40 41 42 43 40 40 40 42 43 42 41 42 44 47 48 50 53 56 57 57 59 62 63 62 64 66 66 64 64 66 69 72 75 79 83 84 83 83
33 39 39 40 42 42 44 45 45 46 42 42 45 45 46 49 49 51 54 55 57 57 58 55 55 59 61 61 62 66 68 66 65 66 67 70 73 76 80 83 82 82 83 83
34 37 40 42 44 47 49 45 45 45 45 46 45 46 47 51 53 53 57 58 58 57 51 58 60 57 59 62 66 68 66 67 68 69 72 75 78 81 82 81 81 82 82 80
41 40 39 41 42 43 45 47 45 46 46 49 50 52 55 55 52 56 60 65 59 49 59 57 58 60 63 65 67 68 68 69 71 73 76 79 82 82 80 80 81 81 77 76
36 39 41 40 41 41 44 46 45 47 46 44 53 56 56 52 50 58 51 45 60 56 56 59 61 63 65 67 69 70 71 73 75 77 81 82 80 80 80 81 78 74 75 76
34 37 38 38 42 46 42 43 49 46 44 47 51 46 45 53 55 46 55 58 57 58 61 64 66 67 68 69 71 73 75 77 79 82 81 80 81 81 80 75 73 75 76 76
38 37 38 36 35 38 34 33 36 44 46 49 51 50 52 48 52 55 53 56 59 62 64 66 67 69 70 73 75 77 79 82 83 82 82 82 81 77 73 73 75 76 76 75
33 34 34 35 37 36 35 36 37 38 39 40 42 46 52 52 53 55 57 61 64 65 66 68 70 72 74 77 79 81 83 83 83 83 82 80 74 72 74 75 76 76 75 72
33 30 30 32 33 34 36 37 42 41 46 52 51 49 51 55 58 61 64 66 67 68 69 72 74 76 78 81 83 84 84 84 84 82 77 74 74 75 76 77 76 75 72 68
30 30 31 34 37 39 41 44 48 51 51 51 51 54 57 60 64 66 67 68 70 72 73 75 78 81 83 84 85 84 84 83 80 77 77 77 78 78 77 76 74 71 68 67
31 34 38 42 43 45 47 47 47 48 51 53 55 60 64 66 67 69 70 71 73 76 79 81 83 84 84 85 85 85 83 82 81 81 80 80 79 78 76 74 71 68 67 64
39 40 40 41 43 44 47 49 51 53 56 61 64 65 67 69 71 72 74 77 79 81 83 84 85 85 86 86 86 86 86 85 84 83 82 81 79 76 73 71 69 66 61 57
42 44 45 48 50 51 51 53 57 61 63 65 67 68 70 71 73 76 78 79 81 82 84 85 86 87 88 88 88 88 87 86 84 83 81 79 76 75 72 68 62 57 53 48

GFSNGP_500_spd_063.txt.gz
Wind_Speed
31 25 21 19 22 24 26 27 28 24 22 20 22 25 19 28 28 25 28 26 24 25 25 26 28 29 31 35 38 41 40 39 39 41 43 45 46 44 45 46 47 47 48 49
34 33 28 28 25 24 23 24 27 26 25 24 28 24 24 28 32 32 27 27 27 28 29 30 31 30 31 33 35 36 33 34 35 39 38 40 41 42 43 44 45 47 49 52
37 31 30 34 25 24 24 25 23 26 23 18 24 28 27 26 28 32 31 29 29 31 33 34 33 34 33 33 35 37 38 38 36 37 38 39 39 40 43 45 47 50 53 56
35 35 40 22 24 21 25 22 24 26 24 23 26 30 25 21 22 24 27 28 29 30 32 32 32 33 33 34 35 36 37 38 39 39 39 40 41 43 45 48 51 54 57 60
39 38 34 31 27 21 20 21 22 24 21 23 28 22 22 23 24 24 26 27 28 29 31 31 31 31 31 32 33 34 36 38 38 39 40 41 43 46 48 51 53 57 60 62
38 40 42 25 24 20 24 23 21 22 27 25 26 24 27 24 26 25 26 29 30 31 31 31 30 30 31 32 33 35 36 36 37 39 41 43 45 48 51 53 57 61 63 62
38 39 34 27 27 22 29 8 19 25 29 25 27 28 26 27 28 30 30 30 30 31 31 31 31 32 32 33 33 34 35 37 39 41 43 45 48 51 53 57 61 63 63 63
36 39 39 30 25 25 16 24 26 28 32 33 33 32 31 31 31 32 33 33 32 33 32 32 32 33 33 34 35 36 38 40 42 44 46 49 52 55 58 61 64 64 63 65
43 40 33 30 29 27 24 23 28 30 32 33 33 33 31 32 33 35 36 35 34 34 35 36 36 34 35 37 38 40 42 44 45 47 50 54 57 60 63 65 64 63 65 66
41 37 36 34 33 30 28 28 32 32 33 32 33 32 31 33 34 35 37 37 36 36 37 38 36 37 38 39 41 43 45 46 49 52 55 58 61 64 65 63 64 65 66 65
45 43 40 40 35 31 34 36 35 34 35 34 33 33 31 33 36 41 38 36 36 36 35 36 38 39 41 43 45 46 48 51 54 57 59 62 63 64 63 64 67 68 67 68
43 42 42 45 37 39 37 37 36 38 38 37 36 37 36 38 39 40 39 40 39 37 38 39 41 43 45 47 48 50 53 56 58 61 61 63 64 63 65 68 69 69 70 72
40 40 44 44 42 45 45 42 40 42 40 40 38 40 41 41 37 37 38 41 42 41 43 44 44 46 48 51 53 54 57 60 61 61 64 64 64 67 69 68 69 71 72 74
34 35 33 34 34 31 39 45 45 47 46 44 42 40 42 43 42 42 42 44 46 47 48 49 50 51 55 57 59 62 63 59 61 63 63 63 67 70 70 70 71 72 74 77
28 29 32 35 36 38 41 43 46 48 49 50 49 45 45 46 46 45 45 49 50 49 51 53 55 58 59 60 61 63 60 63 65 63 63 67 70 70 71 72 74 76 79 82
29 31 30 34 39 41 44 45 47 48 48 50 51 49 50 52 50 46 47 49 52 53 56 58 59 59 61 65 66 59 62 65 64 65 68 69 71 72 73 74 76 79 83 85
28 32 34 36 39 41 45 47 47 45 48 50 50 52 54 51 48 48 50 56 55 55 59 62 63 65 69 68 59 62 62 65 67 68 68 70 73 74 75 77 80 83 85 86
35 36 38 40 42 43 42 41 42 43 44 46 48 50 53 52 52 52 53 56 58 60 62 64 66 65 58 57 61 64 66 67 68 70 71 72 74 77 79 82 84 85 85 85
33 35 36 36 38 41 42 41 41 42 45 47 49 51 53 50 52 52 58 67 61 62 61 58 53 56 57 60 65 68 69 70 73 73 73 76 79 82 84 85 86 86 84 81
30 30 30 33 34 36 38 40 43 45 46 49 53 47 50 52 56 57 55 52 51 50 49 56 57 59 63 66 69 71 73 74 74 76 78 81 84 86 87 87 86 83 80 77
24 27 32 35 38 39 42 41 42 45 46 46 44 47 49 51 55 52 50 50 51 56 58 59 61 64 67 70 73 74 74 76 78 81 84 87 88 89 88 86 83 80 79 80
33 30 30 32 34 38 39 40 39 38 37 39 40 44 48 51 50 49 51 55 58 59 61 64 67 69 72 73 74 76 79 83 85 88 89 90 89 88 86 84 83 82 82 82
32 33 34 36 36 38 36 37 39 42 41 41 43 45 47 50 53 53 54 57 60 62 65 70 73 74 76 78 81 84 86 88 90 91 91 90 89 88 87 86 85 84 82 79
34 36 37 37 37 36 35 37 39 42 44 45 47 50 52 54 56 58 62 63 66 70 73 75 77 79 82 84 86 88 91 92 93 92 91 91 90 89 88 86 85 83 80 77
33 32 32 34 36 37 38 40 43 46 48 50 53 55 57 60 63 64 65 69 73 75 77 80 82 85 88 90 92 92 93 93 92 92 92 91 90 89 88 85 82 79 75 71
34 36 37 38 41 44 46 49 51 53 54 57 59 61 64 66 65 67 71 74 77 80 83 86 88 90 92 92 92 93 92 92 91 90 90 89 88 86 83 78 74 69 64 59
41 43 45 47 48 50 52 54 57 59 60 62 63 65 66 67 70 72 76 79 83 85 87 89 90 90 90 90 89 89 88 87 87 88 88 87 82 77 71 67 62 57 53 49

GFSNGP_500_spd_066.txt.gz
Wind_Speed
40 30 23 21 24 27 30 31 29 23 26 20 13 26 22 26 30 30 27 26 24 27 27 24 25 25 27 30 31 32 35 36 40 41 40 39 39 39 43 44 45 45 46 47
39 37 33 30 23 25 27 28 25 22 23 18 24 28 31 32 37 33 37 27 27 28 34 28 26 28 30 31 33 34 36 37 38 37 35 38 41 42 41 42 43 44 45 46
48 41 42 39 32 31 29 23 21 23 23 26 25 28 34 35 36 25 31 28 30 31 35 32 26 29 34 35 37 38 37 37 37 38 40 41 40 40 42 43 43 44 45 47
42 41 50 42 37 38 34 28 31 28 28 26 25 22 29 36 38 27 21 24 26 27 31 32 32 32 35 37 38 38 38 39 40 41 40 40 41 43 43 43 43 46 47 50
43 42 43 42 32 33 28 27 27 27 25 23 18 24 34 35 30 29 24 26 27 29 31 31 32 33 34 35 37 37 38 38 39 40 41 43 43 43 43 44 46 48 50 53
44 46 48 40 34 31 30 32 21 24 27 24 30 33 34 26 27 29 29 28 29 30 32 33 34 35 35 35 35 35 36 37 39 40 41 41 42 43 45 47 48 50 54 57
43 45 45 38 30 30 37 25 21 27 18 25 33 32 26 29 29 29 31 32 33 34 35 35 36 36 36 35 36 37 37 38 38 39 40 41 43 45 47 49 51 55 59 62
41 41 46 37 32 36 26 20 26 26 27 29 30 31 30 31 31 32 32 33 34 35 36 37 38 38 36 36 37 38 39 39 41 42 43 44 46 48 49 52 56 59 63 63
45 43 37 28 27 29 28 32 30 31 30 33 33 32 32 32 31 31 34 35 37 37 37 39 39 39 40 39 40 40 41 42 43 44 46 48 50 52 54 56 60 63 63 65
36 42 45 44 30 31 40 28 30 32 32 35 38 32 34 34 34 33 35 37 35 35 39 41 39 39 40 42 41 40 42 44 46 48 50 52 53 55 58 62 64 64 66 65
35 25 35 39 41 37 31 35 35 36 36 39 40 38 38 36 36 36 35 35 37 39 41 41 40 41 43 42 42 43 45 48 50 52 54 56 58 60 64 63 64 66 67 67
51 37 37 37 37 38 36 37 42 39 40 41 44 39 37 38 38 40 40 41 41 40 41 41 41 44 45 47 48 48 49 52 54 56 59 62 63 64 65 65 67 68 69 70
43 42 43 48 46 42 41 41 46 48 44 48 44 41 40 40 40 42 43 44 44 44 41 40 44 46 47 50 52 55 53 55 57 60 62 64 67 68 63 64 66 68 71 73
41 42 41 38 35 38 39 43 43 44 46 48 52 45 45 45 46 48 49 47 45 42 41 43 46 48 49 51 55 58 60 60 61 63 65 69 70 67 67 71 71 73 75 76
34 35 30 29 35 34 33 37 38 35 36 39 44 48 49 50 52 54 53 50 48 45 47 48 49 49 51 55 58 60 63 65 66 67 71 72 71 65 71 74 76 78 79 80
31 30 29 29 28 35 32 35 40 43 45 46 48 51 52 53 53 53 53 52 52 52 51 50 53 55 58 59 61 63 66 67 69 73 72 71 66 74 75 78 80 81 82 81
27 30 31 33 34 37 40 41 43 45 48 49 51 51 48 48 49 50 51 52 55 54 53 53 59 62 62 67 69 69 72 73 66 61 64 68 74 76 79 81 81 81 82 84
29 30 33 35 37 37 41 44 45 47 47 46 44 44 45 46 48 48 50 51 54 54 56 57 60 65 69 70 69 68 64 62 64 67 70 73 75 78 81 82 82 84 86 89
30 32 35 39 42 43 44 45 45 47 48 47 48 48 48 48 48 49 50 51 52 55 57 64 66 64 63 63 62 60 62 65 68 70 72 75 78 80 82 84 86 88 91 92
37 37 37 39 40 41 40 40 40 40 41 42 43 44 47 48 49 49 51 56 61 62 61 58 56 57 59 59 61 64 66 68 70 73 75 79 82 83 86 88 90 92 93 92
30 32 31 31 35 37 37 37 38 39 40 41 43 46 48 48 51 53 54 52 51 51 51 52 53 54 60 62 65 68 70 72 75 79 82 84 87 89 91 94 94 94 93 92
27 30 31 30 30 31 33 38 40 40 42 44 45 44 43 43 44 47 48 48 48 49 52 57 60 63 66 68 70 71 74 79 82 84 87 90 93 95 96 96 96 95 93 90
25 26 27 29 33 36 38 40 41 42 44 46 48 48 48 47 46 48 50 53 56 58 62 64 67 69 70 73 76 78 81 84 88 91 95 98 99 99 97 96 93 90 88 87
29 31 33 35 37 39 41 41 41 42 44 45 45 46 47 49 49 51 54 58 61 63 65 68 71 74 76 79 81 85 89 92 95 98 99 99 97 95 92 89 88 87 87 87
29 31 32 34 35 36 38 39 41 43 45 46 48 50 52 54 56 58 61 64 67 70 71 74 76 80 82 85 89 93 96 98 99 98 95 92 90 89 89 89 90 89 86 80
36 37 38 40 40 42 45 47 46 45 48 51 53 56 59 62 63 65 67 69 71 73 76 79 81 83 88 92 95 97 96 94 91 88 87 87 88 89 90 90 88 82 75 66
41 42 43 44 45 46 48 50 53 54 55 58 60 62 63 65 65 67 69 71 74 76 80 84 87 90 91 89 87 85 84 83 84 85 87 88 90 91 88 82 75 66 56 48

GFSNGP_500_spd_069.txt.gz
Wind_Speed
50 32 42 34 29 29 32 30 28 21 25 25 27 26 27 26 22 28 27 30 28 24 26 18 19 24 26 30 31 31 28 28 29 32 35 37 39 39 39 38 39 42 41 41
49 44 24 32 31 25 25 28 29 28 28 23 16 26 29 28 33 27 30 33 31 32 32 23 18 22 25 29 32 32 32 33 34 37 39 39 39 38 39 41 44 42 42 43
53 39 42 43 37 29 29 24 27 31 28 22 22 28 29 34 38 36 30 17 23 29 31 31 22 23 25 28 30 32 34 36 38 40 40 41 41 41 44 46 43 42 42 43
58 39 50 51 37 36 33 31 26 28 27 25 27 29 33 36 39 37 24 22 31 31 28 26 24 23 26 28 30 32 34 36 38 39 40 41 42 43 42 42 42 43 43 44
43 48 53 51 45 34 37 38 36 35 31 31 33 35 30 32 37 36 35 28 25 26 26 28 28 28 29 31 33 35 36 38 38 38 39 41 41 41 42 43 43 44 45 46
54 56 57 51 47 41 39 43 38 32 33 35 36 36 31 30 33 32 31 30 27 27 28 29 31 32 34 35 36 38 39 40 39 38 40 41 41 42 43 44 45 46 48 50
49 51 47 48 42 37 50 42 25 27 28 32 33 32 32 33 32 29 31 31 32 31 30 31 34 34 34 35 37 38 39 39 39 40 42 43 42 43 44 46 47 49 51 54
44 45 46 42 43 40 41 32 26 30 33 34 30 36 29 24 29 29 30 30 33 35 35 35 35 34 35 36 38 39 39 40 41 43 44 44 44 45 47 48 51 53 55 56
42 46 37 29 37 40 39 34 35 39 39 37 31 29 30 32 32 32 33 33 34 35 35 35 36 35 35 35 37 38 39 40 41 43 44 45 46 48 50 52 54 56 58 60
34 36 40 38 35 28 40 43 40 38 40 38 36 37 36 34 36 36 37 37 37 36 37 37 36 37 39 38 38 39 40 40 41 43 45 47 50 53 54 55 55 59 62 64
31 31 34 41 29 34 31 36 42 46 44 39 43 40 36 37 40 40 38 41 41 38 38 39 40 40 40 39 38 40 40 42 44 47 48 50 52 55 57 58 62 61 63 67
42 34 35 35 42 37 43 33 37 43 48 45 44 43 41 41 42 43 44 43 42 41 40 41 40 41 43 43 43 43 44 46 49 51 51 52 55 57 60 63 64 64 66 70
46 46 45 41 44 33 31 33 32 32 41 45 48 50 47 48 48 51 48 47 44 43 43 43 43 44 45 45 45 46 48 51 53 53 54 58 60 62 65 67 67 69 74 77
44 48 48 47 47 38 34 39 42 45 45 43 46 49 51 53 56 58 53 54 50 50 48 48 48 49 50 50 50 52 53 55 57 58 60 62 62 63 65 69 73 77 77 75
41 37 34 36 38 34 35 39 38 38 43 46 47 50 51 53 49 49 52 51 51 50 48 49 48 49 54 58 58 56 55 59 63 65 65 66 68 72 74 76 76 74 74 74
37 37 35 33 33 32 27 29 33 34 36 38 40 41 41 45 48 49 49 48 46 46 47 49 53 55 57 60 59 56 64 68 69 72 73 74 76 77 76 74 74 74 76 77
37 35 31 30 30 32 32 34 35 37 38 42 45 47 49 50 50 51 49 48 47 50 52 54 55 56 57 59 61 61 69 72 72 71 72 74 75 74 73 73 74 77 78 78
36 37 36 33 33 34 35 36 38 41 43 45 47 48 49 50 50 49 49 50 51 52 52 53 54 57 59 62 64 68 71 69 69 69 70 70 71 71 72 76 78 78 80 84
24 27 30 35 36 36 37 39 41 43 44 45 46 46 47 49 51 51 50 50 52 53 54 55 58 61 65 69 70 67 64 63 63 64 65 68 71 75 76 77 79 83 87 90
24 26 29 33 36 40 42 42 44 46 47 46 45 45 45 45 45 46 48 51 52 56 61 63 60 56 54 54 55 56 58 60 62 66 70 74 75 77 79 83 87 91 93 95
30 34 38 41 44 44 42 41 42 43 44 44 43 42 42 46 46 48 50 52 52 52 52 52 53 52 52 53 56 58 61 64 67 69 73 76 80 84 88 91 93 96 98 98
28 28 30 32 34 36 36 36 36 33 34 36 40 44 48 48 49 51 53 54 54 53 53 55 57 58 60 62 64 66 68 71 74 78 81 84 87 90 92 96 98 99 98 94
25 26 28 29 31 31 32 34 36 38 41 44 48 48 49 50 51 52 52 52 52 52 54 57 60 63 65 68 71 74 76 79 81 84 87 90 93 96 98 99 97 93 90 89
28 27 28 29 31 33 36 39 41 44 46 47 47 48 48 50 51 53 53 53 55 57 59 62 64 67 70 72 76 79 81 83 87 90 93 96 97 95 92 90 88 87 88 89
29 29 31 32 34 36 38 39 41 43 44 46 48 50 52 54 55 54 55 57 59 61 63 65 67 70 72 76 79 83 87 91 92 92 90 87 85 84 85 87 88 88 88 88
32 34 35 37 38 39 40 42 44 46 47 48 49 50 51 52 55 57 59 60 62 64 66 68 71 75 78 82 85 87 87 85 82 81 80 81 83 85 86 86 86 85 82 76
33 35 37 38 40 41 42 43 44 46 47 49 51 53 54 56 57 59 60 62 65 68 71 75 78 81 83 83 80 77 75 75 76 78 81 82 82 82 82 80 76 70 62 53

GFSNGP_500_spd_072.txt.gz
Wind_Speed
35 26 45 50 47 38 32 32 34 31 36 31 29 26 27 30 28 29 29 26 20 24 20 21 22 21 24 25 22 24 25 25 23 28 31 31 34 33 35 36 37 40 40 40
25 28 49 51 52 44 39 40 36 29 38 30 31 35 30 34 36 32 30 33 31 26 22 12 21 22 26 30 31 27 26 26 27 28 30 32 35 36 39 39 39 41 43 43
33 27 51 55 44 49 43 40 35 35 31 31 27 26 30 33 40 34 35 31 26 22 22 21 12 13 18 24 29 30 28 27 29 31 33 35 36 38 39 40 41 42 43 43
33 34 47 51 39 47 44 36 31 30 28 27 30 28 29 32 35 33 32 33 24 23 26 24 23 20 18 21 24 27 29 31 33 36 38 39 40 42 42 42 42 42 43 43
30 29 33 50 43 34 40 37 31 33 32 28 29 33 36 38 35 37 38 38 33 26 26 31 29 27 26 25 25 27 30 32 33 34 36 39 41 42 42 43 44 46 45 45
35 35 31 41 51 49 37 42 38 38 38 31 30 33 34 31 32 30 32 34 31 26 28 27 30 31 31 31 31 31 33 34 35 36 37 39 40 41 43 45 47 48 47 47
39 39 37 37 53 42 44 42 35 31 30 32 36 38 38 39 35 33 35 32 31 31 31 31 32 32 31 33 35 36 36 37 39 40 41 40 40 42 45 47 48 48 49 50
42 35 38 36 49 55 51 51 48 40 35 36 37 41 37 35 31 33 34 31 33 31 30 31 34 36 36 36 38 38 38 40 40 40 39 39 41 43 44 46 47 47 48 50
38 36 35 36 43 45 44 53 53 50 49 48 43 41 37 35 33 35 35 35 34 34 32 34 36 37 37 37 38 38 40 42 42 41 41 42 44 45 47 48 49 50 52 53
39 41 38 35 39 39 42 41 51 52 55 55 50 45 40 40 34 35 40 39 38 37 39 39 40 40 39 39 40 41 42 41 40 41 43 45 47 48 52 52 52 55 57 58
39 34 36 33 35 40 39 37 36 40 49 51 51 49 46 46 42 42 42 39 40 42 41 40 40 39 40 42 43 42 42 43 44 46 47 49 51 54 55 55 57 59 61 64
38 33 33 29 30 34 40 43 39 34 44 48 47 48 50 51 49 50 52 51 47 46 46 43 43 43 43 43 46 46 47 47 47 48 49 51 54 56 57 59 61 63 61 60
33 38 36 37 37 43 32 36 32 43 41 38 42 50 52 51 49 51 50 52 53 49 51 52 53 54 56 51 50 51 51 50 50 52 55 58 59 61 60 61 70 70 70 72
44 39 32 38 40 40 33 34 39 40 32 40 48 49 54 58 54 51 54 56 51 50 53 54 49 50 57 52 49 52 55 50 55 56 54 58 62 64 65 76 75 77 79 79
45 45 39 38 41 41 35 31 32 32 31 36 41 43 44 44 47 50 51 52 50 47 48 48 49 51 52 51 53 57 59 58 61 61 61 63 66 69 72 79 77 78 79 79
44 42 43 43 35 33 34 31 30 31 34 38 40 44 47 46 45 44 45 46 44 46 50 51 50 51 53 55 57 58 58 58 59 60 63 67 70 71 75 81 78 75 76 77
37 36 40 39 39 34 36 35 33 32 33 34 35 36 38 40 41 42 45 46 47 48 49 51 53 55 56 57 57 57 58 60 63 66 69 72 75 78 78 73 71 71 73 75
40 37 35 37 37 36 36 37 37 36 38 39 41 42 43 44 46 46 46 46 48 50 53 54 54 53 53 54 55 58 62 64 67 69 70 69 67 65 66 68 70 72 75 78
32 36 37 38 40 41 41 42 41 40 42 43 44 44 45 45 45 46 47 47 48 48 48 48 49 52 56 59 61 62 62 61 60 60 62 64 66 68 70 72 75 78 80 84
31 32 32 35 37 39 40 43 46 45 46 47 47 46 46 46 46 47 47 46 45 45 49 51 54 56 57 59 60 61 62 62 62 63 64 66 68 71 74 77 81 84 87 88
37 35 33 35 37 39 41 42 45 48 48 47 44 41 41 43 45 44 42 43 46 50 52 54 56 58 59 60 60 61 61 62 64 67 69 72 75 78 81 83 86 89 93 96
29 34 37 39 39 39 40 40 40 40 41 41 39 39 39 37 36 39 43 47 51 52 53 54 56 58 60 60 61 62 65 67 69 72 75 78 80 83 86 89 93 96 97 96
30 27 30 32 33 31 30 30 29 30 29 30 32 35 38 41 43 46 47 48 50 53 55 57 59 61 62 63 65 67 70 73 74 76 79 83 86 90 93 94 93 91 89 88
30 32 35 30 28 30 30 29 30 32 35 38 40 42 43 44 46 48 51 53 55 57 59 61 62 64 65 68 70 71 73 76 79 83 87 90 90 89 87 86 85 86 87 88
37 37 32 29 29 31 32 33 35 37 39 42 44 45 48 50 52 54 56 58 58 59 60 62 64 65 67 70 74 76 79 83 85 86 85 82 81 81 81 83 83 83 82 81
35 31 28 28 31 33 36 39 41 43 45 47 49 51 52 54 55 56 56 57 58 60 61 63 66 69 72 75 78 81 81 80 77 76 75 75 76 77 78 77 77 77 76 72
25 26 28 31 34 37 38 40 42 43 45 46 48 49 50 52 53 55 57 59 60 62 65 67 70 73 75 76 75 72 69 68 69 70 71 72 72 71 71 72 71 66 59 52

GFSNGP_500_spd_075.txt.gz
Wind_Speed
41 37 40 48 45 41 48 49 47 40 36 29 26 30 34 30 28 28 29 28 25 19 16 18 20 19 24 24 25 27 24 25 24 23 24 25 22 24 27 29 29 29 31 34
39 37 35 36 32 39 47 54 52 45 40 32 32 34 31 30 26 28 28 30 29 27 23 24 22 16 24 24 24 27 27 25 25 24 25 25 26 27 29 32 32 34 34 33
41 35 33 40 35 38 43 55 55 49 42 30 29 33 33 36 34 36 33 29 30 33 31 22 22 19 19 23 24 25 23 23 23 24 26 27 29 32 33 34 36 37 35 36
33 35 36 33 31 39 48 49 51 46 39 32 35 32 32 32 34 37 39 34 33 35 31 19 19 20 20 21 22 25 27 27 27 27 29 31 32 34 37 39 39 38 37 39
36 30 34 39 21 34 50 44 50 47 43 40 39 36 37 35 32 34 34 33 32 32 32 32 27 25 26 26 27 28 30 31 32 34 35 36 36 38 40 41 41 41 41 42
17 35 34 34 27 30 48 44 41 53 47 43 40 36 30 32 33 31 26 30 28 31 32 30 29 30 30 29 29 31 33 34 35 37 38 39 41 42 43 44 45 45 45 46
38 28 36 30 25 26 38 42 38 55 48 43 38 37 33 34 29 28 28 31 32 34 32 32 31 33 31 30 30 33 36 38 40 40 40 42 44 44 44 45 46 47 48 49
43 36 34 37 27 25 33 36 34 35 41 44 41 43 40 37 32 32 33 35 36 36 32 33 34 31 30 31 32 35 37 40 42 42 43 44 45 47 48 48 48 49 51 52
44 38 39 36 35 31 28 19 37 36 37 39 45 37 41 42 33 29 30 32 35 37 38 37 33 33 33 33 35 38 40 42 43 44 45 46 48 50 50 50 52 55 55 55
42 34 38 37 35 33 30 35 32 36 43 47 47 50 50 45 40 36 32 36 37 39 43 39 38 37 37 38 40 42 42 44 46 46 48 49 50 50 51 51 52 53 55 56
37 30 30 40 40 35 33 33 37 38 37 35 45 49 41 41 45 45 47 48 47 45 43 44 47 45 41 42 45 44 47 49 47 47 48 51 54 55 55 56 58 58 59 61
40 26 34 31 33 29 31 33 38 39 36 39 40 43 50 53 53 53 47 48 48 50 47 47 44 49 51 49 51 51 53 54 56 55 54 52 54 57 57 59 59 61 62 64
48 36 32 31 33 32 30 33 32 34 39 44 41 40 46 52 58 57 53 53 53 55 51 52 54 57 57 57 57 58 54 47 50 51 55 52 59 59 60 63 66 69 71 75
50 40 30 30 32 32 30 27 32 39 32 36 40 47 51 41 49 49 46 48 51 52 56 55 58 58 61 62 57 51 53 54 55 56 58 59 61 64 67 70 70 69 70 72
47 41 35 36 33 33 28 30 29 27 25 32 24 27 36 52 55 49 57 59 56 55 62 61 62 62 62 60 51 50 54 57 58 59 59 59 60 61 63 64 66 68 71 74
30 48 40 39 42 38 38 34 31 31 28 28 29 32 31 35 38 40 42 43 45 49 51 49 46 43 45 48 50 52 55 58 59 58 58 58 59 61 64 67 70 71 71 71
33 47 46 39 42 42 35 34 34 32 33 30 31 32 31 33 34 35 36 38 41 42 43 44 46 49 52 53 55 56 54 53 53 55 58 61 63 65 66 67 68 70 71 72
29 35 37 36 36 38 37 37 38 37 34 34 35 34 36 38 40 39 41 42 43 46 47 49 51 52 54 54 51 50 52 56 58 60 61 63 64 67 68 69 70 72 73 76
32 35 36 39 40 40 39 39 41 40 40 39 40 40 41 42 42 43 44 45 48 48 48 49 51 52 50 49 52 55 57 58 59 62 64 65 67 68 70 71 72 75 78 81
19 31 34 32 37 42 43 41 40 42 42 43 44 44 45 46 47 45 43 44 45 47 48 51 51 49 52 53 54 56 59 61 62 63 67 69 70 71 73 75 77 80 83 86
29 40 34 38 34 36 40 42 42 42 42 43 44 45 45 44 44 43 42 43 44 45 47 49 50 50 51 55 57 59 61 63 65 67 69 71 73 75 77 80 82 85 89 93
35 32 30 33 36 36 39 40 39 40 38 38 38 38 37 38 40 42 44 46 46 46 46 47 50 53 56 59 61 62 64 66 68 70 73 75 77 78 81 85 88 91 92 92
39 37 30 33 35 35 36 37 36 36 38 39 39 39 40 42 44 42 42 43 44 46 50 53 55 57 59 60 62 64 66 69 71 73 75 78 82 85 88 89 90 89 89 88
31 40 40 35 34 35 36 37 38 39 36 35 34 35 36 37 40 42 45 48 50 52 54 55 57 59 61 63 65 67 69 72 75 78 82 85 86 87 86 84 83 82 83 84
22 32 36 35 37 37 37 37 38 38 33 34 36 38 41 42 44 46 48 50 52 54 56 58 60 61 63 65 69 72 75 78 81 82 83 81 78 75 75 76 77 77 76 74
24 25 32 37 38 36 36 37 38 36 34 35 39 42 44 45 46 47 49 52 54 56 58 60 62 65 68 71 74 76 77 78 75 71 68 68 70 71 71 70 68 67 68 67
21 22 24 27 30 32 35 37 37 37 38 39 41 43 44 46 49 52 54 56 57 59 61 64 66 69 72 73 71 68 63 60 61 63 65 65 65 63 62 61 62 62 60 55

GFSNGP_500_spd_078.txt.gz
Wind_Speed
46 48 49 47 45 45 46 44 45 42 38 25 27 28 31 31 30 31 30 28 25 27 26 21 22 20 20 24 27 27 27 24 23 26 26 24 23 22 24 25 25 25 28 25
47 48 46 51 49 47 46 46 47 45 44 32 33 36 36 35 33 33 31 32 28 26 23 19 20 20 21 17 24 29 30 29 27 26 26 28 28 28 26 26 27 28 28 30
41 46 46 49 46 43 44 46 49 49 47 38 36 37 40 37 33 30 30 28 26 25 19 19 21 21 22 21 23 26 25 24 22 22 24 25 27 27 27 29 30 31 32 34
35 39 38 45 42 39 38 38 43 44 46 39 39 33 32 38 40 40 33 34 35 33 32 29 24 25 25 22 25 24 23 23 23 24 25 27 29 30 32 34 35 36 37 38
17 36 35 39 38 31 33 35 40 38 38 35 41 41 37 32 29 34 33 29 31 32 31 28 29 26 26 22 26 27 27 28 28 29 31 32 33 35 36 36 38 39 41 43
32 15 31 30 32 33 37 34 30 38 38 35 42 42 34 34 34 37 33 30 30 27 29 30 28 27 27 24 24 26 29 30 32 33 33 35 36 38 40 41 42 42 43 44
34 33 20 21 13 28 37 29 29 31 36 39 44 44 41 42 37 35 36 31 27 27 27 30 31 31 28 28 28 27 29 32 33 33 35 37 40 42 44 45 46 47 47 48
34 35 38 26 20 22 27 25 27 26 37 44 36 43 45 44 40 38 37 29 27 27 29 33 35 31 29 29 30 32 33 34 35 36 37 40 43 44 46 47 48 49 50 51
36 35 37 32 31 29 23 27 22 27 27 34 40 49 48 46 42 41 40 34 31 31 30 31 32 32 33 34 36 36 37 39 41 41 42 43 46 48 49 50 51 51 53 53
34 36 37 39 30 29 28 28 26 26 22 18 32 28 29 46 45 34 36 34 30 32 34 35 35 36 37 36 39 41 44 46 47 47 46 49 51 51 51 53 55 55 57 58
28 33 42 39 36 34 32 30 29 29 28 25 26 30 33 34 39 43 37 35 39 40 40 41 43 42 44 46 45 47 49 47 46 52 54 55 57 57 59 60 60 61 58 63
34 35 38 31 33 35 35 31 31 35 35 29 32 32 35 33 31 33 36 37 37 40 42 43 47 44 45 45 49 50 50 55 56 57 57 59 57 52 54 58 61 58 57 60
35 37 39 38 32 34 29 25 28 29 32 34 33 40 42 40 38 41 41 45 42 40 47 46 45 46 47 55 56 55 54 55 58 61 60 61 48 55 58 61 65 67 65 67
35 40 36 45 37 27 26 29 31 31 27 26 25 31 32 38 38 39 39 39 40 49 55 56 53 54 58 58 56 58 60 63 64 64 65 63 63 61 60 64 64 65 66 68
38 36 34 44 47 41 32 30 31 31 31 26 25 21 26 32 38 42 48 49 52 56 56 57 42 54 57 55 56 59 60 60 58 51 50 55 58 60 63 65 64 63 63 65
43 39 36 37 42 41 39 33 33 34 30 27 28 24 23 25 28 31 36 42 48 60 47 53 54 60 60 52 48 48 46 48 53 57 60 60 61 59 59 61 63 65 67 68
41 39 34 30 33 39 43 41 36 36 37 36 34 28 28 30 30 32 33 35 39 41 42 43 43 41 41 44 47 49 53 56 58 59 59 58 58 61 63 64 66 68 70 71
32 31 35 37 33 36 41 41 41 37 37 40 39 38 34 32 33 33 33 35 36 37 40 42 42 44 45 47 51 53 54 54 56 57 58 60 63 62 64 68 70 72 74 77
41 41 32 31 31 35 39 44 39 37 39 41 42 41 41 40 39 38 39 40 39 41 44 46 47 45 46 49 51 53 56 57 57 60 61 59 62 66 69 71 74 76 79 82
34 29 32 19 28 31 33 34 38 41 43 44 44 44 45 44 44 44 43 43 45 46 45 46 47 48 51 53 55 56 57 59 60 58 59 64 68 71 73 75 79 81 83 86
38 25 13 16 23 27 33 36 35 37 39 44 45 45 46 43 41 39 39 40 42 43 44 47 50 53 55 57 59 59 58 55 58 63 66 70 73 75 77 80 82 84 87 91
21 19 24 27 26 27 34 39 39 39 37 38 41 42 40 37 40 40 41 43 44 45 47 49 52 55 56 54 52 54 57 62 66 69 72 74 76 78 81 84 87 91 93 93
27 29 29 32 35 34 33 35 37 38 39 38 38 39 39 40 43 45 45 45 46 48 49 49 48 48 50 54 58 62 65 67 69 71 74 77 80 83 86 89 90 89 85 83
26 29 30 30 33 35 44 37 37 35 33 35 37 39 40 43 43 42 41 41 42 43 45 48 51 55 58 60 62 65 66 68 71 75 78 81 84 86 85 80 77 77 78 79
26 28 29 30 37 35 38 37 35 36 36 35 37 37 37 36 38 39 40 42 44 47 49 52 55 57 60 62 64 67 69 72 76 79 80 80 76 72 71 72 73 74 73 71
26 33 35 35 33 29 29 31 32 34 36 37 39 40 40 40 40 44 46 47 48 50 52 54 57 60 62 64 68 70 72 73 72 70 67 65 65 66 68 69 68 65 61 60
21 24 27 28 28 29 29 30 31 32 34 36 38 41 41 41 42 46 49 51 53 54 56 58 61 64 65 66 65 64 62 60 58 58 59 61 64 65 64 60 56 54 54 56

GFSNGP_500_spd_081.txt.gz
Wind_Speed
41 37 38 42 44 44 49 49 51 46 45 43 28 29 30 27 34 36 32 29 29 26 26 24 21 21 20 20 18 22 27 28 28 26 24 25 25 25 22 21 23 19 22 24
34 32 30 40 39 42 45 47 51 50 47 44 33 33 36 31 36 37 37 31 30 30 26 29 24 27 26 26 24 22 23 25 29 28 27 26 24 25 24 27 24 22 23 25
26 32 40 39 43 41 43 47 48 48 46 45 37 35 34 39 41 38 38 38 35 33 31 32 34 31 28 24 22 23 24 23 24 25 24 23 21 20 21 24 26 27 28 31
27 10 23 32 40 39 38 41 44 46 47 48 42 41 42 43 44 40 38 38 34 32 26 24 28 29 30 26 24 24 27 25 26 27 24 24 24 24 26 27 29 32 33 35
27 16 13 25 25 31 36 36 39 43 44 42 40 39 39 37 44 37 36 35 33 37 33 33 29 27 24 27 27 25 25 26 24 27 28 28 27 27 28 30 32 34 36 38
37 29 21 10 20 21 30 35 31 37 39 35 39 36 27 43 44 41 33 30 32 30 30 22 29 27 27 27 25 24 26 26 25 25 27 28 30 31 32 34 36 37 38 41
33 34 22 17 10 17 28 28 32 32 31 29 25 32 31 33 40 36 38 31 32 32 33 28 27 28 27 29 29 30 27 27 27 28 29 30 32 32 32 33 35 37 39 42
23 19 30 19 15 12 16 18 22 28 31 30 28 32 33 32 34 39 32 30 31 32 32 31 29 29 28 29 31 30 28 28 30 33 33 33 35 36 38 40 42 43 45 47
16 13 16 18 17 20 18 16 15 17 22 24 27 25 40 36 39 38 40 36 35 38 34 33 34 32 33 32 33 30 30 32 34 36 37 38 38 42 45 43 45 47 48 51
17 23 24 28 26 27 26 23 20 17 16 20 21 21 28 37 33 45 45 42 38 40 43 41 41 38 35 36 36 37 37 41 42 43 42 43 45 46 43 49 49 49 52 52
15 19 21 26 27 30 29 22 21 23 21 22 27 21 14 19 28 32 36 31 31 31 43 46 44 40 40 40 41 39 45 41 44 42 42 46 50 50 54 52 52 53 52 52
20 18 18 22 24 25 34 33 30 27 26 27 27 25 24 23 24 28 26 29 31 44 46 46 45 45 43 43 46 42 43 45 43 44 48 52 55 55 56 57 59 56 62 62
26 27 27 26 25 25 29 36 34 29 29 32 32 25 28 29 34 33 35 33 32 34 41 51 44 41 47 49 57 48 51 41 50 54 52 61 59 59 60 63 65 64 60 62
31 31 31 33 32 29 28 35 35 34 29 31 30 24 21 27 29 33 39 41 40 40 45 39 46 47 51 49 46 49 47 57 52 49 57 63 63 62 60 56 54 56 59 62
36 36 35 38 39 33 30 38 32 32 29 32 33 29 24 25 24 27 30 34 39 41 44 44 45 44 54 59 60 60 60 60 51 59 63 64 58 52 51 54 57 61 64 66
40 39 38 38 39 33 29 32 44 40 33 32 29 31 29 28 26 28 29 30 37 46 48 49 51 57 55 58 56 53 52 55 58 53 50 49 51 53 57 60 63 65 66 67
40 41 41 40 39 35 32 30 40 45 42 35 33 33 35 33 30 30 32 30 31 33 35 37 34 41 44 50 52 46 43 45 47 49 52 52 54 59 61 63 64 65 68 68
36 38 35 33 32 33 35 32 33 39 37 40 41 37 35 38 38 37 36 36 35 35 34 36 40 40 41 44 44 46 48 50 49 50 54 57 59 62 64 65 66 67 65 68
34 33 37 33 31 33 34 35 34 35 40 44 41 43 44 41 40 42 43 43 42 41 42 43 45 44 44 46 49 50 51 53 54 57 60 63 64 66 68 67 64 66 71 76
38 38 27 25 33 38 36 35 31 37 36 40 42 41 43 44 46 47 45 45 45 44 45 46 46 45 47 50 52 53 52 56 60 62 63 65 68 67 63 64 69 74 77 81
38 42 44 42 31 27 28 25 32 35 31 36 35 35 39 45 46 46 44 42 43 44 42 43 45 47 49 49 51 52 54 55 57 61 62 61 60 64 68 72 76 79 82 85
25 27 31 34 31 21 20 19 24 26 29 34 37 37 38 40 42 43 43 43 44 44 47 50 51 52 53 53 54 56 57 58 57 57 60 63 67 70 73 76 80 83 86 88
12 13 19 22 27 28 25 26 28 30 34 40 42 46 45 46 47 46 44 45 48 49 50 52 54 54 54 53 52 52 52 55 58 62 65 67 71 74 78 81 84 85 84 82
15 17 23 26 29 30 32 30 28 30 31 39 44 43 41 42 44 46 47 47 48 48 48 47 47 47 47 49 51 54 57 60 62 66 69 73 75 77 78 78 76 74 73 72
16 20 25 28 28 29 31 31 32 34 37 41 46 47 45 40 40 39 40 39 40 40 41 43 46 48 50 53 56 59 62 64 68 71 72 72 71 69 67 66 65 67 68 70
24 25 27 29 31 31 33 35 35 35 37 40 37 36 36 36 37 37 38 39 41 43 45 48 50 52 53 55 58 60 64 66 66 65 64 62 59 59 60 62 64 65 64 62
23 24 25 26 26 27 29 31 32 33 34 36 36 37 37 38 39 40 42 43 45 47 48 51 53 56 57 57 58 58 58 57 55 52 52 53 55 57 59 62 62 60 57 53

GFSNGP_500_spd_084.txt.gz
Wind_Speed
38 36 36 39 40 41 42 44 47 40 42 40 41 29 28 27 31 32 33 33 32 31 30 29 29 29 27 23 20 21 24 26 26 28 27 25 25 24 22 23 25 26 25 26
27 30 30 36 36 37 44 44 44 42 42 42 42 31 33 31 34 37 38 38 33 31 32 29 29 26 26 30 30 27 26 28 29 32 35 34 32 28 28 28 25 23 26 28
23 29 26 25 32 35 37 42 47 46 40 39 38 38 33 32 38 40 41 43 40 34 29 29 25 25 27 29 29 30 28 30 27 25 24 24 25 26 28 28 26 26 27 28
26 28 28 20 27 38 37 39 40 42 41 40 37 37 35 39 43 41 45 43 45 39 35 29 30 29 31 32 28 29 29 30 29 26 26 26 27 27 28 28 27 28 29 32
31 30 26 19 5 23 31 36 37 35 34 37 40 41 40 38 41 41 44 46 52 45 44 43 32 31 33 35 34 33 32 29 29 30 29 28 30 32 31 31 32 33 35 36
29 30 35 30 8 14 20 28 36 34 36 36 36 38 38 35 36 37 43 47 53 53 47 42 40 45 43 37 33 33 32 28 27 26 29 29 30 30 31 32 34 35 35 36
22 27 29 30 24 4 22 15 24 27 30 32 32 33 34 35 37 37 38 46 50 58 47 37 32 33 36 35 35 34 31 30 28 31 29 30 31 31 31 32 34 34 35 36
20 22 29 25 21 6 8 13 24 12 22 31 30 29 30 31 32 33 33 42 48 50 44 37 34 34 40 42 37 36 34 33 30 32 33 32 32 31 33 34 36 37 38 41
9 14 19 18 19 18 12 15 18 27 24 24 25 30 32 29 28 32 32 36 47 47 43 41 37 33 34 39 37 36 36 42 39 38 36 38 38 37 39 39 38 41 45 45
16 16 13 15 23 30 22 20 18 16 19 21 19 23 24 27 32 32 40 39 36 49 44 47 41 40 41 43 42 42 43 41 42 42 43 44 44 44 40 43 43 45 48 49
17 19 18 21 21 22 24 24 21 21 18 18 16 21 24 25 25 29 40 39 44 40 43 47 46 48 48 48 48 47 48 45 45 49 49 47 44 51 48 49 50 50 51 54
15 13 13 15 15 15 15 16 23 28 25 24 23 20 19 20 24 19 20 29 36 49 51 49 49 46 48 54 55 52 53 51 52 55 53 53 59 53 50 53 57 55 60 61
20 20 20 19 17 18 17 17 19 22 25 28 30 27 20 23 24 27 25 24 26 27 32 33 34 35 39 45 53 51 51 49 51 56 65 63 63 64 58 53 50 42 52 51
23 24 24 23 24 24 24 22 21 23 26 27 31 28 24 23 26 25 30 26 30 33 34 34 37 38 46 35 50 47 54 60 63 63 46 43 42 48 50 54 59 54 58 60
27 28 29 30 30 30 30 28 28 27 28 29 33 28 26 28 28 27 27 29 28 32 36 38 43 46 51 52 52 43 52 60 53 49 50 51 53 55 57 58 62 63 61 57
31 31 32 33 35 36 36 34 32 31 28 33 35 32 33 31 31 31 31 30 30 31 34 37 37 43 47 52 49 35 40 49 49 51 53 53 56 59 62 60 54 53 56 59
35 36 37 37 39 40 41 40 37 34 32 33 36 46 40 31 33 32 34 33 32 32 32 33 32 34 35 35 36 33 35 36 30 43 49 56 51 50 51 55 57 59 63 66
36 38 40 42 41 40 38 38 38 37 38 37 36 38 46 47 45 41 33 32 34 35 34 37 37 36 39 41 43 46 48 49 49 53 53 54 54 56 59 61 63 66 68 71
34 34 34 35 36 35 33 33 33 36 38 37 33 29 27 30 37 39 41 39 39 39 38 38 40 42 44 45 48 50 51 52 53 55 55 57 61 63 63 65 68 71 72 72
37 39 39 39 37 35 33 35 36 34 33 32 31 36 37 33 44 43 42 42 42 43 43 44 44 46 48 48 49 51 53 54 55 57 58 59 61 63 65 67 68 70 71 69
33 34 34 37 40 40 34 25 24 27 31 33 35 35 40 44 42 39 40 40 41 41 42 44 46 47 48 49 52 53 55 58 60 61 62 62 63 65 67 67 66 66 69 72
33 33 32 32 33 37 41 41 36 32 28 30 30 37 39 42 44 46 43 42 42 45 46 47 47 49 50 52 54 56 58 59 60 61 62 62 61 61 62 65 68 70 73 77
21 23 23 23 23 27 33 37 37 31 28 30 29 31 35 38 40 42 46 51 53 54 54 54 55 54 54 55 57 58 58 57 56 55 56 58 60 63 65 68 70 73 76 77
19 16 16 17 17 17 19 25 32 36 37 34 36 38 39 41 43 46 48 51 54 55 57 58 57 55 54 53 52 51 51 52 55 57 59 62 65 68 70 71 72 71 69 68
16 16 18 20 22 23 26 29 31 32 33 34 35 37 38 39 43 45 48 49 53 52 49 48 47 47 48 49 51 52 54 56 59 61 63 65 66 67 68 65 61 60 60 60
21 22 23 24 26 28 30 32 34 36 37 38 38 39 40 41 43 43 43 42 42 43 43 45 47 49 51 53 56 57 57 58 59 60 60 60 58 56 54 54 54 54 56 58
27 28 28 28 28 28 28 29 30 30 32 33 34 35 36 37 38 39 41 43 45 47 48 49 51 52 54 56 57 57 56 56 56 54 53 51 48 47 48 50 52 54 56 58

GFSNGP_500_spd_087.txt.gz
Wind_Speed
26 28 33 31 31 31 34 35 38 34 32 28 31 33 26 27 29 27 30 31 31 31 31 30 28 25 23 22 23 24 24 22 23 23 23 24 23 21 23 24 21 21 23 23
27 22 26 31 31 32 33 35 37 39 39 29 32 31 32 37 36 35 34 35 35 34 33 32 32 30 28 25 23 23 23 23 23 24 26 27 29 31 31 30 29 29 27 28
23 22 23 29 27 29 32 35 38 41 39 33 31 30 34 28 28 32 39 37 40 39 36 36 35 36 34 29 27 24 23 24 24 25 26 28 29 28 27 28 31 31 30 30
25 24 25 19 25 25 28 29 34 36 36 34 28 29 29 28 36 36 37 38 41 47 45 40 42 41 37 35 33 27 27 28 28 28 27 27 29 28 28 27 29 31 31 30
25 24 25 20 21 20 22 28 32 36 30 33 29 36 36 38 38 36 41 41 42 42 45 43 47 42 39 40 36 33 30 29 28 28 30 32 31 31 30 31 32 33 35 35
22 19 22 21 23 18 10 19 22 33 40 39 32 35 29 42 40 38 37 37 40 44 43 49 49 49 39 40 36 34 35 34 35 34 31 31 31 33 34 33 35 38 39 39
19 22 21 23 28 29 19 20 22 35 34 34 39 41 38 37 34 34 38 37 34 36 42 47 50 51 53 49 44 46 45 41 38 37 35 32 29 30 33 35 34 35 37 38
18 21 21 27 23 28 24 15 14 26 31 28 32 41 35 31 28 27 33 32 31 36 38 45 50 56 58 56 53 53 44 36 37 41 42 38 35 33 36 37 38 38 39 40
9 15 16 24 27 24 27 16 17 4 8 30 12 25 29 30 28 29 27 31 31 35 40 42 49 52 52 53 46 40 41 46 46 45 44 45 44 44 38 42 41 42 46 48
9 18 15 18 24 22 18 22 17 11 12 13 19 22 27 29 32 35 37 35 32 31 39 40 43 45 44 43 40 36 41 45 50 41 44 47 57 61 51 50 49 53 56 50
21 17 13 10 24 22 28 25 26 26 21 15 14 19 25 25 27 30 32 35 36 34 36 40 50 51 50 47 48 47 46 47 48 46 50 57 60 53 52 58 58 59 56 59
19 20 21 19 17 17 18 19 16 14 18 22 22 20 21 19 24 26 27 31 32 37 37 38 45 48 53 51 54 54 52 53 55 54 58 59 59 59 59 58 59 65 67 67
18 18 18 15 14 13 12 12 12 11 15 15 17 23 28 26 26 24 24 25 27 20 14 33 41 42 55 50 62 62 62 62 61 65 67 66 66 61 60 66 70 66 65 62
20 21 21 20 20 19 18 18 18 17 16 16 17 18 20 21 26 27 28 27 29 32 25 18 22 34 31 28 30 43 52 55 59 62 57 59 60 62 65 64 60 60 57 57
22 22 21 22 22 22 23 23 24 25 26 24 23 23 21 25 24 26 31 33 31 29 30 31 28 30 34 37 40 38 44 49 49 44 45 51 56 58 56 53 53 55 57 55
23 24 25 25 26 28 28 29 29 30 30 30 31 29 27 26 28 32 26 31 31 32 33 32 34 35 34 35 36 40 42 48 48 40 40 39 42 47 47 50 56 57 58 60
25 26 28 30 32 33 34 35 35 36 37 37 36 33 30 31 32 37 42 39 32 35 36 37 38 37 37 38 43 42 39 35 39 37 34 37 37 42 43 48 56 61 61 59
30 33 36 37 38 39 41 42 43 42 42 41 39 36 35 36 36 37 42 47 46 46 41 36 36 35 35 37 40 40 38 40 44 46 49 50 51 54 56 58 60 63 65 66
31 34 36 38 39 39 38 35 35 36 37 35 35 36 38 39 40 37 38 37 43 42 41 39 41 41 42 41 40 42 44 47 48 50 52 55 56 57 58 60 61 63 66 68
34 36 38 39 39 39 40 41 39 37 37 38 39 37 37 38 38 37 42 39 43 39 36 37 39 42 41 42 44 46 48 50 53 55 56 57 59 60 61 62 63 66 68 70
33 34 36 37 36 35 36 35 38 41 40 36 35 34 32 34 36 33 36 37 34 42 41 39 39 41 42 42 44 45 47 49 52 54 56 58 61 63 64 65 66 67 67 66
34 33 35 36 38 38 36 36 37 39 41 38 33 29 28 34 39 38 49 48 49 47 47 48 48 48 48 50 52 53 55 56 58 58 59 60 61 62 63 63 63 63 64 67
29 30 28 24 24 25 27 30 32 35 39 43 43 41 37 38 35 40 38 43 48 51 50 49 49 49 51 53 55 57 60 61 61 61 60 61 59 58 59 60 63 65 67 69
27 25 23 25 27 24 24 22 21 25 30 34 39 40 38 43 44 40 39 42 45 48 50 52 52 52 54 56 58 55 58 57 55 54 53 54 56 59 62 64 66 69 71 71
26 25 24 24 23 25 24 23 23 24 26 29 33 38 40 40 39 39 41 43 45 47 50 51 54 55 56 55 52 49 49 50 52 54 57 59 61 63 64 65 67 67 66 64
28 27 27 28 27 26 25 26 27 28 30 32 34 35 37 38 39 41 42 43 45 46 46 46 46 45 47 47 49 51 53 55 57 59 60 61 61 61 61 60 59 59 56 53
32 32 32 32 32 33 33 33 32 33 33 34 35 35 36 37 38 38 39 40 41 42 44 46 47 49 50 52 53 54 56 57 58 58 57 55 55 55 55 54 51 48 48 49

GFSNGP_500_spd_090.txt.gz
Wind_Speed
21 23 23 23 26 30 33 33 33 29 34 34 35 20 30 16 17 29 27 25 24 23 26 27 27 24 23 23 20 18 18 16 18 19 17 16 15 16 18 19 20 21 21 20
23 22 28 31 28 28 27 29 31 34 35 32 31 38 37 39 26 30 27 26 28 30 28 29 31 28 27 28 26 24 22 21 21 19 19 18 19 18 21 23 25 28 27 27
19 21 26 26 26 29 28 31 33 36 34 34 33 33 32 32 36 38 36 36 39 37 32 30 32 33 31 29 27 27 27 27 24 22 22 21 23 22 20 21 24 26 27 29
19 21 23 17 24 25 26 28 28 29 30 30 30 31 35 38 33 33 42 45 39 34 36 39 36 36 34 31 30 31 33 32 30 26 26 27 27 26 24 24 25 26 27 28
20 19 18 20 20 20 21 26 26 24 24 25 31 28 29 35 36 40 42 44 37 38 41 40 47 46 46 40 38 36 37 36 33 32 30 29 28 29 30 29 29 30 30 31
20 16 14 14 15 19 19 24 23 21 20 28 29 26 32 39 40 40 36 33 40 44 44 44 43 44 51 48 46 46 41 42 39 37 34 34 32 31 31 28 30 31 33 33
16 17 16 16 10 21 20 22 18 21 21 33 22 34 32 42 51 52 45 42 45 44 44 46 47 45 43 48 47 50 51 45 46 40 40 38 34 34 32 31 33 34 35 36
14 18 19 21 17 13 23 26 22 22 31 24 25 20 24 28 28 32 34 31 36 44 44 44 42 46 44 45 47 52 46 54 50 47 43 44 45 38 41 37 35 36 38 40
14 11 14 14 27 29 24 28 28 20 23 16 38 32 30 20 19 21 27 28 30 37 40 40 41 44 46 46 46 51 52 56 56 56 54 45 49 45 46 46 44 43 46 45
14 15 17 19 5 23 28 26 24 18 17 12 18 23 35 27 21 23 27 28 28 31 31 35 37 43 46 47 48 51 54 56 56 59 45 45 47 52 50 45 45 51 51 62
18 15 15 24 21 25 22 21 20 21 24 21 17 13 19 24 26 28 28 28 31 31 32 35 38 37 42 48 48 49 51 50 46 45 48 43 49 45 47 48 51 52 54 59
23 27 20 20 15 15 24 24 24 26 19 16 16 18 17 14 21 23 19 21 29 31 29 32 35 38 39 42 41 48 49 51 51 46 45 49 48 46 55 53 50 57 60 63
21 23 22 19 16 15 10 9 8 9 13 12 14 14 16 19 26 23 23 23 26 30 28 26 24 24 29 38 44 55 54 50 49 52 54 52 54 53 61 62 57 70 65 70
23 24 20 18 17 15 14 12 13 14 14 15 14 14 14 15 16 22 25 28 31 31 29 30 34 35 21 24 27 27 38 48 45 36 37 55 58 59 57 54 59 47 43 56
21 23 23 20 19 18 19 18 17 18 19 20 21 21 22 21 20 21 22 26 28 32 32 33 35 34 38 38 36 36 32 27 33 30 27 30 34 35 37 41 46 43 44 46
20 20 20 20 20 21 22 24 25 26 27 27 27 27 27 27 29 28 26 26 29 31 29 31 34 34 31 35 35 34 36 36 36 34 32 28 31 35 38 38 44 47 50 49
19 21 22 23 24 25 27 29 30 31 33 33 33 33 33 34 34 36 35 34 32 32 39 40 40 40 36 34 38 38 38 36 32 33 34 33 37 39 39 42 44 46 49 53
23 24 26 27 29 31 34 37 38 39 40 41 42 42 42 41 40 40 41 40 38 39 41 42 43 41 44 44 42 40 35 35 36 37 37 39 41 44 46 48 49 52 54 55
28 30 31 32 33 35 37 39 41 42 43 43 42 42 40 40 40 42 40 38 37 41 42 41 32 36 33 37 39 40 40 39 40 41 42 43 45 48 50 52 54 56 58 60
30 29 30 31 33 34 36 37 37 39 41 42 42 41 41 41 41 41 41 42 42 46 44 33 44 39 41 36 35 36 40 42 43 44 45 46 47 48 50 53 56 58 60 63
29 28 30 31 31 32 35 37 37 38 39 39 39 42 44 43 41 40 41 41 40 40 42 42 42 44 39 36 38 42 43 43 45 46 48 51 53 54 56 57 59 61 63 65
32 32 32 33 35 37 37 36 34 36 38 39 39 41 41 42 43 40 35 31 35 41 45 45 50 47 45 45 52 48 51 51 51 51 52 53 54 56 57 60 59 62 64 64
35 33 32 34 36 34 32 29 28 25 24 28 34 37 38 39 42 42 40 36 36 34 34 38 44 46 45 46 50 52 54 53 55 57 57 57 59 60 61 61 58 58 60 62
33 32 35 34 32 32 31 30 30 32 30 28 25 26 27 29 34 43 44 42 41 40 42 42 42 42 44 46 48 50 53 55 55 56 56 57 59 59 58 60 60 62 64 65
31 34 33 31 32 31 30 29 28 28 28 28 27 27 27 28 30 32 36 39 41 42 42 41 42 44 45 47 48 49 50 51 51 52 53 55 57 59 62 63 63 63 63 62
32 32 32 33 33 33 33 32 31 30 29 28 28 28 29 31 33 35 37 39 40 41 42 44 44 45 46 47 48 48 49 51 53 55 57 59 61 62 63 62 61 60 59 58
36 37 38 38 38 38 37 37 36 36 36 36 35 35 35 36 37 38 39 40 41 42 43 43 45 46 47 48 50 51 53 55 57 58 60 61 61 60 58 56 54 54 54 55

GFSNGP_500_spd_093.txt.gz
Wind_Speed
22 24 26 31 27 26 21 16 17 15 31 31 29 28 25 17 24 20 21 25 25 27 23 19 21 23 21 24 23 21 20 19 18 17 16 13 13 13 17 19 20 21 22 23
20 22 25 24 28 27 27 27 29 25 27 34 40 39 31 28 26 34 37 24 20 23 29 27 20 24 24 25 25 25 23 22 24 22 20 20 19 17 16 18 22 26 26 26
21 24 21 18 17 23 24 26 29 31 29 27 27 28 29 40 38 33 18 27 29 32 27 27 25 25 26 27 29 28 27 25 26 26 25 24 23 22 21 21 21 22 25 28
16 20 22 19 22 29 35 32 31 30 29 25 25 30 37 39 39 35 34 37 40 40 37 34 33 32 31 28 30 33 34 31 29 28 31 30 29 27 27 28 26 23 22 25
21 22 20 16 24 28 27 27 28 31 32 31 30 27 33 40 41 41 38 40 45 50 49 43 40 41 37 37 33 30 31 32 30 32 34 36 34 32 31 32 32 28 29 30
19 19 18 20 21 24 23 27 27 28 29 28 26 25 33 36 38 32 36 44 41 42 48 49 47 42 44 43 43 43 42 38 41 38 38 38 38 36 33 32 32 31 34 33
15 18 17 19 19 13 15 24 23 26 26 25 21 27 31 33 37 36 40 42 47 43 41 42 40 44 45 45 44 44 44 46 45 47 45 44 42 40 38 35 36 38 37 37
13 17 15 18 20 20 12 17 22 25 24 28 20 23 29 35 33 39 32 29 40 44 40 39 43 46 47 48 48 48 46 44 42 43 46 50 50 49 46 43 43 45 44 42
13 12 12 18 25 32 16 13 17 23 22 24 24 22 5 31 42 35 33 40 37 41 52 41 37 41 47 44 46 48 47 46 45 43 46 47 43 49 57 55 49 50 53 50
14 15 11 12 18 16 18 29 26 22 24 24 20 25 26 29 29 23 17 18 19 26 26 29 35 36 35 41 45 48 48 46 48 46 48 48 50 52 51 53 59 55 54 55
17 18 18 19 27 15 14 18 21 23 21 32 29 22 30 39 30 39 41 27 23 26 28 29 32 35 37 37 41 43 47 48 50 50 50 50 51 52 51 52 55 62 62 59
22 27 23 20 20 19 17 20 21 21 25 23 30 21 17 22 22 22 28 33 29 29 27 26 26 28 25 29 37 38 40 41 44 46 47 52 51 49 48 47 48 52 47 51
22 16 16 17 22 23 22 20 13 18 24 16 15 12 12 13 16 18 23 24 28 27 25 28 27 26 23 29 29 30 31 36 42 49 51 62 60 53 57 53 52 52 55 55
28 28 28 25 19 17 15 11 10 10 10 12 14 13 11 12 12 14 17 19 23 31 29 28 31 28 23 30 33 34 38 28 23 24 21 26 42 51 56 58 58 56 53 64
30 31 30 27 22 20 18 17 16 16 17 17 17 17 18 19 19 20 20 20 20 22 24 27 28 28 29 33 36 31 40 37 41 43 40 28 26 22 27 31 31 33 32 32
22 25 27 26 24 22 22 20 18 18 19 21 22 23 24 25 26 27 27 27 28 28 28 29 30 32 31 32 36 34 32 35 36 35 35 31 27 28 30 33 35 37 38 36
25 25 24 24 23 21 22 23 23 23 25 26 28 29 31 32 34 35 35 35 35 36 36 35 35 38 39 38 37 38 37 37 38 36 32 31 31 33 34 37 38 39 42 45
21 21 22 22 23 24 25 26 28 30 32 34 36 37 39 40 42 43 44 44 44 43 43 42 41 41 43 45 43 42 44 38 38 41 38 37 37 37 36 38 41 43 45 47
23 24 24 25 26 28 30 32 34 35 37 39 41 42 44 45 45 45 44 43 42 42 43 44 43 45 46 44 42 39 38 37 35 36 39 37 37 39 41 43 44 46 47 47
29 30 31 31 32 32 32 31 33 34 36 36 38 39 41 40 41 41 43 43 41 41 43 45 44 48 43 41 40 43 42 39 39 38 38 39 42 41 42 44 46 47 50 52
33 34 36 36 32 30 31 32 32 32 33 35 37 38 40 42 43 43 42 41 43 43 42 41 42 43 44 41 40 45 45 44 47 42 43 46 47 49 50 50 51 52 53 55
36 35 34 32 33 34 34 34 35 34 34 34 30 29 30 34 38 40 43 44 42 41 43 39 34 33 37 41 42 48 48 48 50 50 47 47 50 52 51 51 54 55 55 56
33 33 35 37 38 37 37 36 35 35 36 34 34 35 35 34 33 34 38 38 38 40 41 41 42 38 37 38 38 42 46 49 52 54 53 53 54 53 52 51 52 53 52 54
36 38 40 41 41 39 36 35 36 34 33 32 31 31 32 32 34 34 29 30 32 34 35 38 41 43 43 43 45 45 46 47 48 48 49 50 50 50 51 52 53 55 57 60
38 40 39 37 36 36 34 35 35 34 34 33 32 31 31 32 33 32 33 33 34 35 36 37 39 41 43 44 45 46 46 47 47 47 48 48 49 50 52 54 57 59 62 65
36 35 37 37 36 36 36 37 37 37 37 37 37 36 35 35 35 35 34 34 34 35 37 39 40 41 42 43 43 44 44 46 47 49 50 52 55 56 58 60 62 64 65 66
35 36 37 38 40 41 43 43 43 43 43 43 42 42 42 42 41 41 40 40 40 41 41 42 43 44 45 45 45 46 48 49 51 52 53 56 58 59 61 61 60 60 59 58

GFSNGP_500_spd_096.txt.gz
Wind_Speed
27 28 30 32 32 21 21 20 23 20 29 26 27 18 19 12 23 34 40 38 37 31 27 24 25 26 25 27 26 27 26 24 22 20 18 16 16 15 16 17 19 20 21 22
21 23 28 31 24 25 24 23 18 17 17 23 28 27 27 21 14 16 25 21 23 23 26 22 26 28 28 28 27 29 29 27 26 24 22 21 21 22 22 21 22 24 24 26
24 28 26 21 24 26 32 33 29 27 21 19 17 27 30 26 21 23 20 30 21 23 21 21 20 23 29 29 31 30 30 31 30 28 26 27 26 25 25 24 23 24 26 30
26 35 26 24 21 25 24 28 27 24 25 26 30 31 29 33 35 30 31 28 24 25 31 26 24 25 27 28 33 32 31 32 34 33 32 31 31 29 30 29 29 28 28 29
26 24 23 22 24 23 25 28 29 31 28 30 31 28 27 32 35 32 32 34 32 31 32 33 33 34 35 35 33 31 34 35 38 40 38 35 34 33 34 34 34 34 32 30
29 23 22 21 19 22 25 28 29 29 26 30 31 30 31 31 32 36 34 37 38 37 37 40 36 41 43 44 42 38 39 38 37 39 40 39 39 38 37 37 34 38 37 35
26 26 25 25 24 24 24 24 26 22 24 26 23 25 30 33 35 39 38 31 36 43 43 42 46 44 45 45 48 46 42 42 43 43 44 44 44 42 44 44 45 44 41 42
21 23 21 20 20 21 19 16 22 21 20 20 22 22 18 27 35 38 38 35 36 37 39 45 44 45 46 43 47 50 50 46 43 47 47 48 45 46 49 50 50 49 49 48
20 18 17 19 19 24 25 18 20 21 19 20 21 20 21 8 29 34 34 37 37 36 40 38 33 39 48 47 46 47 47 48 50 46 44 45 47 46 45 50 47 48 50 49
11 11 11 12 10 20 28 26 19 16 14 17 21 22 26 27 21 33 38 34 28 23 28 29 39 43 42 51 49 45 48 44 45 47 44 40 42 48 49 51 46 47 53 43
12 10 13 14 14 15 18 21 22 21 26 24 22 22 24 22 17 25 33 30 26 28 23 23 23 28 30 32 39 41 41 40 39 41 43 44 43 45 47 49 50 51 51 52
16 18 15 17 16 16 23 21 19 17 17 21 23 25 30 32 30 24 25 34 35 36 36 33 30 30 30 30 32 33 32 35 41 41 42 44 43 43 44 47 46 66 54 49
26 12 21 18 27 21 16 17 19 20 19 19 23 26 25 26 27 25 17 23 31 37 33 32 34 32 30 32 33 32 30 29 28 31 33 37 37 40 45 50 59 52 50 55
27 18 20 17 13 16 17 16 18 23 21 19 21 18 13 12 12 13 13 14 17 18 23 27 33 36 35 36 36 36 36 35 33 29 28 30 39 33 37 39 45 54 67 71
18 29 29 25 24 22 20 19 19 18 18 16 14 16 16 17 18 20 20 20 20 21 21 23 24 24 26 30 32 35 34 36 30 31 28 29 37 41 42 38 38 45 38 35
22 23 25 28 26 24 25 24 23 23 23 22 22 22 22 23 23 23 24 25 26 28 29 30 30 31 31 34 35 33 31 31 31 32 34 29 33 36 33 32 32 32 36 39
22 24 24 22 24 25 27 27 26 25 24 24 24 25 26 26 27 29 30 32 33 35 36 37 38 39 40 40 41 42 41 40 38 38 38 37 34 37 37 36 33 36 39 43
24 26 28 28 28 27 27 27 26 26 26 27 29 30 32 33 35 36 38 40 41 42 44 45 46 47 48 49 49 49 48 48 45 43 41 36 33 33 38 39 40 41 43 44
24 25 27 28 26 26 27 28 28 30 30 32 34 35 37 39 41 42 43 45 46 47 48 49 49 48 48 48 48 48 50 50 48 42 38 41 40 35 38 40 40 41 43 44
25 26 27 28 29 30 31 32 32 32 32 32 32 34 37 39 41 42 43 44 45 45 45 44 44 47 47 47 46 46 48 49 49 48 44 45 42 41 42 45 46 45 44 48
30 32 34 35 36 37 37 37 37 33 33 34 34 36 38 39 40 40 39 39 40 42 43 45 46 45 46 47 46 45 45 46 46 45 46 46 44 46 47 51 51 50 51 51
35 36 37 38 40 40 40 37 35 36 37 39 39 38 38 37 36 37 36 38 35 34 35 38 42 44 44 43 44 43 40 38 39 42 45 45 45 46 47 49 50 52 53 55
35 35 36 36 35 36 36 37 39 41 40 39 39 37 36 35 35 36 37 38 37 36 37 35 34 36 38 39 40 43 45 45 42 42 43 46 47 49 50 52 53 53 53 53
33 33 35 36 37 37 37 38 39 40 39 38 38 36 36 36 36 35 35 36 36 37 38 37 34 34 35 38 39 41 43 45 47 48 49 49 49 50 52 52 53 53 54 55
38 38 39 40 41 42 42 41 40 39 38 38 39 38 38 38 38 38 39 39 39 39 39 39 39 40 39 40 40 41 43 45 47 48 49 49 49 49 50 52 53 54 55 56
38 39 40 41 41 40 40 40 39 39 39 39 40 41 42 43 43 44 44 44 44 44 43 43 43 43 43 43 43 43 44 45 45 46 47 48 50 51 53 54 55 56 58 60
38 39 40 41 42 42 42 43 43 44 45 46 47 48 48 48 47 47 47 47 47 47 47 47 46 46 46 46 46 46 47 48 49 49 50 51 52 53 54 55 57 58 58 58

GFSNGP_500_spd_099.txt.gz
Wind_Speed
33 27 29 26 31 28 30 29 29 22 27 28 26 28 20 25 8 31 41 40 37 35 36 35 29 32 32 30 34 31 28 27 25 24 24 21 17 17 15 14 16 18 19 19
33 30 31 33 32 34 31 33 20 21 21 16 18 22 20 14 6 25 32 40 40 35 31 34 34 32 33 31 30 33 30 29 31 28 27 27 25 23 21 20 20 20 20 21
16 21 17 21 24 28 33 30 29 23 17 18 15 12 14 16 12 12 12 33 44 39 37 31 27 29 31 30 31 33 34 33 33 32 31 31 31 29 26 26 25 24 23 23
17 15 16 19 22 27 24 25 23 26 28 26 24 22 19 16 16 18 18 11 19 27 30 30 32 30 29 33 35 32 32 31 35 35 34 33 33 33 32 31 29 28 28 28
13 12 15 20 27 25 25 20 21 20 19 21 19 22 19 20 24 26 27 22 16 25 33 29 30 27 28 27 29 30 32 32 31 35 37 38 37 35 36 37 35 33 33 33
13 13 16 19 22 23 24 24 24 23 23 24 27 29 28 24 25 25 26 28 28 29 27 24 29 29 31 32 33 36 34 34 33 37 39 36 40 40 40 40 39 40 37 37
20 20 20 21 22 24 21 20 23 24 23 24 26 25 24 26 24 25 25 27 27 30 32 30 28 32 33 35 34 38 39 39 38 39 39 42 41 44 46 43 43 43 41 42
24 25 25 25 23 23 23 22 18 20 19 22 21 22 22 18 20 20 24 27 29 31 25 27 31 34 36 38 42 43 39 41 38 35 36 37 44 46 47 45 42 45 50 48
28 26 23 23 25 25 25 23 19 15 16 16 17 18 17 17 10 13 28 22 29 28 35 35 34 32 33 37 41 43 44 43 45 43 38 36 38 44 46 49 48 46 48 41
19 20 17 17 17 15 18 21 22 18 14 13 12 13 16 17 19 14 14 28 28 30 31 33 36 36 38 38 35 35 35 39 44 45 45 43 43 42 44 46 46 45 43 47
16 13 13 10 11 10 11 14 18 23 18 17 16 14 12 18 18 14 14 17 20 23 33 35 32 28 29 27 30 33 36 36 36 37 40 43 41 36 37 41 41 43 42 53
14 15 13 16 14 13 11 14 14 13 10 12 14 15 15 17 20 23 26 24 22 22 24 29 32 29 28 28 32 32 31 32 36 37 34 35 36 37 38 38 37 42 43 46
18 17 12 11 12 16 16 11 18 17 16 16 16 15 15 17 20 22 23 24 28 27 26 34 36 36 38 39 39 35 32 34 37 36 34 35 34 36 40 40 43 44 41 42
17 17 15 12 13 15 15 13 18 18 17 17 19 20 18 18 19 19 21 19 21 24 27 28 28 34 39 33 32 33 37 37 37 36 36 37 37 37 35 37 35 38 40 43
15 20 20 21 19 16 16 14 16 17 19 18 16 14 15 16 15 16 18 19 19 19 20 19 20 20 21 22 24 26 28 30 32 31 33 35 37 39 39 39 40 41 36 36
17 20 19 17 20 23 25 25 22 22 22 23 23 23 20 19 20 22 22 22 22 23 24 25 27 27 28 29 30 32 34 35 37 37 38 39 38 39 39 39 40 39 39 37
22 22 22 22 22 22 23 24 25 25 25 25 27 26 26 26 26 27 28 29 29 30 30 31 32 34 35 37 38 39 41 43 45 45 45 46 47 47 48 48 47 45 42 42
25 25 24 23 24 26 26 26 26 26 26 27 28 29 29 30 31 31 32 33 34 35 36 38 40 41 43 44 46 47 49 50 51 52 53 52 52 51 51 49 44 42 41 43
27 26 24 26 28 28 29 29 29 28 29 31 31 30 31 33 34 35 37 38 39 40 42 44 44 45 46 47 49 50 51 52 52 52 52 52 50 51 49 47 44 42 42 42
23 23 23 25 25 27 28 30 30 29 29 30 32 34 36 35 36 36 37 39 41 42 41 42 44 46 47 47 47 48 49 50 50 50 49 47 46 44 45 45 48 49 48 44
28 29 29 29 31 33 34 35 35 36 38 39 38 37 37 37 36 37 39 41 41 41 42 41 36 34 34 34 35 38 42 47 49 47 47 46 45 45 45 46 47 49 49 49
33 34 34 35 37 38 39 40 41 42 42 41 40 39 39 40 41 43 43 41 41 41 41 41 43 42 40 39 38 37 36 39 42 44 44 45 46 46 44 44 44 46 48 49
33 34 35 37 38 38 38 38 38 37 37 38 39 40 42 43 43 42 41 41 41 41 40 41 41 41 41 40 40 39 39 38 38 40 42 44 45 47 48 50 50 50 51 52
36 36 37 38 38 39 39 39 39 39 39 40 40 40 41 41 41 42 42 43 42 41 41 41 40 40 42 42 42 43 43 43 42 42 43 44 46 48 49 50 51 52 52 54
41 41 41 42 43 43 44 44 45 44 44 43 42 42 42 41 42 43 44 44 44 44 44 43 43 44 45 45 46 47 47 46 46 46 47 47 48 49 50 51 52 53 53 54
38 38 38 38 38 37 37 38 39 39 40 40 41 41 41 41 42 43 43 45 46 47 47 48 49 49 50 50 49 49 48 48 47 47 47 48 49 50 51 53 54 56 57 58
45 45 45 45 45 45 44 44 45 45 45 46 46 47 47 48 48 49 50 51 51 51 51 51 51 52 52 51 50 50 50 49 49 49 50 51 52 52 53 54 55 56 57 58

GFSNGP_500_spd_102.txt.gz
Wind_Speed
34 31 28 29 28 30 32 29 28 24 28 27 26 23 20 16 16 23 6 29 36 38 43 44 41 36 34 30 30 30 30 28 29 26 24 23 20 20 16 15 16 13 12 13
39 34 30 28 26 34 37 27 22 24 27 26 21 19 17 11 13 12 15 34 42 44 36 41 33 32 34 30 30 29 30 30 29 29 29 28 26 25 23 20 20 19 18 16
28 30 32 29 31 25 21 23 27 29 27 29 16 17 16 16 16 21 12 31 42 42 36 37 34 33 34 30 29 28 31 33 33 31 32 33 31 28 28 26 25 24 23 22
23 29 30 23 18 14 15 20 22 27 28 25 24 22 19 18 11 18 19 20 43 41 42 37 34 36 32 30 32 30 30 32 31 35 36 35 34 33 32 32 30 29 29 29
24 17 20 16 15 18 19 18 16 11 19 18 20 19 17 17 16 16 16 9 18 41 46 40 31 30 27 29 32 33 36 30 29 28 32 32 35 37 36 37 36 35 35 33
15 17 14 11 12 11 11 15 17 18 17 19 14 16 16 15 18 22 17 19 14 14 33 41 40 30 31 32 32 32 33 24 24 24 22 26 27 28 32 37 39 38 38 37
16 16 10 8 13 11 11 14 16 17 19 20 20 20 20 19 14 19 18 17 18 12 13 18 23 23 26 27 31 34 31 28 29 29 31 33 35 37 37 38 38 40 42 42
15 14 11 11 13 14 14 15 16 17 18 20 19 19 17 17 15 11 15 15 16 21 21 20 26 29 26 31 34 34 35 35 35 34 36 36 33 32 34 39 42 42 41 42
17 12 12 13 14 17 20 20 19 19 20 17 13 11 11 12 12 8 6 16 18 15 20 22 24 31 27 30 33 34 37 39 38 39 35 35 37 36 36 34 34 36 38 42
15 15 10 11 12 15 17 20 21 19 18 14 11 6 4 9 10 9 10 9 10 18 32 23 22 26 28 31 32 33 36 33 33 32 32 30 31 32 33 35 36 38 40 40
16 11 7 12 13 11 13 9 8 13 14 19 14 10 6 7 8 9 12 13 16 17 12 11 15 22 27 29 29 29 29 32 29 27 28 28 29 29 29 31 33 36 37 39
5 16 19 18 16 15 14 9 10 11 10 9 10 10 10 11 10 11 16 21 21 22 21 16 14 19 21 24 28 29 24 24 26 29 30 29 27 29 29 31 31 31 34 38
5 8 14 19 16 10 10 9 7 9 13 11 11 11 10 11 12 13 15 17 18 19 21 24 22 19 21 26 31 32 33 33 35 36 36 35 33 30 28 30 31 33 31 35
4 9 11 5 8 11 13 13 13 14 15 13 14 15 16 15 14 15 15 16 18 20 21 21 20 23 26 29 30 35 37 37 38 38 35 34 33 33 33 33 36 35 35 36
8 8 7 11 14 14 12 12 13 12 14 15 16 16 16 15 15 17 18 19 19 19 19 20 20 21 21 20 22 21 23 24 26 27 27 28 28 28 30 32 32 33 34 36
10 11 12 12 11 13 17 18 18 19 19 20 20 20 20 19 18 19 21 22 20 19 20 21 22 23 25 25 26 28 30 30 32 33 35 36 37 37 38 39 40 42 44 45
14 13 15 17 17 18 18 21 21 21 22 23 25 26 25 25 24 25 25 24 25 25 26 27 28 29 31 33 34 35 36 37 38 40 41 43 43 45 46 48 50 51 53 53
17 18 20 23 24 24 22 24 25 24 23 23 25 28 29 29 29 29 30 30 30 31 31 32 34 35 37 39 41 42 43 44 44 45 47 47 49 50 52 53 54 55 55 54
23 23 24 25 27 26 24 25 26 28 29 30 29 29 31 31 32 32 33 33 34 35 36 38 39 40 42 43 43 43 43 45 47 48 49 50 50 50 51 52 52 52 50 48
26 29 32 33 33 32 29 27 27 29 29 30 30 30 29 29 31 33 35 36 38 39 39 40 41 42 42 41 42 43 44 45 45 45 44 41 41 43 46 49 49 48 47 48
27 26 26 28 31 32 33 32 32 34 34 34 34 35 35 36 37 37 39 40 41 42 42 43 44 44 44 44 44 43 43 42 43 43 43 41 42 42 43 46 48 46 46 45
32 33 34 36 37 37 36 36 36 37 38 39 40 41 41 42 42 42 42 42 42 44 44 46 46 45 44 45 46 46 47 47 46 46 46 44 44 44 44 44 46 48 48 48
36 38 39 39 38 38 37 38 38 39 40 40 40 40 40 40 40 41 42 43 44 46 47 47 46 45 45 46 46 45 45 45 45 45 46 45 45 45 45 46 47 48 49 51
33 35 36 37 39 40 40 40 40 41 42 42 43 43 43 43 43 43 44 44 45 44 44 45 46 46 47 46 46 46 46 46 46 47 47 48 49 49 49 50 51 51 51 52
36 38 40 41 43 42 41 41 40 40 41 43 44 46 47 47 47 46 46 45 45 45 45 46 47 49 50 50 49 50 50 50 50 50 51 51 52 52 52 52 53 54 54 55
41 42 42 43 43 44 44 44 44 44 44 43 43 42 42 42 41 42 42 43 45 46 47 47 48 49 50 51 51 52 52 52 53 53 53 53 53 53 53 53 53 54 55 56
45 46 47 47 47 48 48 47 47 47 46 46 46 46 46 47 47 48 49 49 50 51 52 52 53 54 54 54 54 53 53 53 53 53 53 53 53 53 53 54 55 56 56 56

GFSNGP_500_spd_105.txt.gz
Wind_Speed
27 26 24 26 29 30 30 31 32 29 23 21 23 27 28 31 27 29 24 28 27 25 28 29 34 41 43 39 35 32 33 34 35 33 29 26 23 21 18 15 11 12 13 13
29 27 29 25 25 26 27 24 25 26 23 23 23 24 19 19 19 18 20 26 18 13 22 38 28 44 42 40 33 34 31 34 34 32 31 29 27 25 21 19 18 15 12 12
26 30 30 28 27 25 23 21 25 21 24 24 23 23 21 15 19 18 23 22 11 33 28 37 38 43 40 36 34 33 35 36 37 34 32 31 30 28 26 25 23 22 20 17
19 20 26 32 27 22 23 21 19 19 18 21 23 24 21 20 18 17 20 27 24 30 36 44 42 41 41 39 35 34 33 33 34 32 32 32 32 31 29 28 28 27 27 26
16 13 12 19 23 23 19 17 13 10 11 14 15 18 21 20 18 18 18 26 27 20 33 38 49 42 39 37 36 33 35 34 40 32 31 33 33 36 32 30 31 32 31 31
16 17 15 17 19 18 15 13 14 12 14 11 11 13 15 15 14 13 19 16 19 6 34 29 35 45 36 43 34 39 37 24 19 22 20 29 33 33 38 36 31 28 30 32
17 18 16 14 13 16 13 12 12 9 10 14 13 14 13 12 13 13 15 18 18 18 15 30 22 15 28 41 46 46 33 25 28 31 26 22 23 23 26 27 27 29 29 32
12 16 11 14 11 12 11 12 10 9 9 11 12 11 12 10 11 10 9 15 14 12 13 16 20 26 35 30 27 27 29 32 33 33 28 28 27 27 30 32 32 34 36 37
8 9 9 11 10 10 8 10 11 11 11 11 11 9 5 5 6 6 5 11 11 10 8 18 14 14 17 16 21 23 25 28 30 31 28 26 28 31 33 34 38 37 37 37
18 17 15 12 11 9 8 8 9 12 13 11 10 8 6 5 5 6 11 6 11 14 10 20 17 21 24 23 26 28 25 25 30 31 31 29 27 27 28 29 31 33 37 39
19 15 12 11 11 7 4 4 7 8 9 10 11 12 7 5 7 12 10 12 12 13 8 12 18 14 13 16 18 22 24 25 26 26 27 27 29 28 27 28 31 32 34 36
7 16 13 8 9 9 9 8 7 9 10 10 10 11 12 8 8 10 16 18 17 17 14 11 7 6 8 14 21 24 28 29 28 27 26 25 23 22 23 24 28 31 31 32
9 5 17 19 15 16 16 15 12 10 11 14 8 9 11 13 15 15 17 18 18 17 17 16 16 18 19 19 19 19 20 22 26 29 28 29 28 28 29 29 29 30 30 32
10 11 9 11 10 13 12 14 12 13 12 13 15 14 15 14 14 15 16 17 18 18 18 19 19 19 19 21 22 21 22 22 24 28 29 27 25 25 25 25 25 25 26 27
8 9 11 12 10 7 11 13 12 11 13 12 14 16 15 15 16 14 14 16 16 17 17 17 18 20 21 20 19 19 19 20 22 24 24 24 24 25 26 27 29 31 31 32
10 11 11 8 7 8 11 12 13 16 16 17 17 16 17 17 17 19 18 17 18 19 18 18 18 18 20 20 21 21 23 24 25 26 27 29 30 32 34 36 38 39 40 41
10 11 12 14 13 13 14 15 15 16 18 20 23 21 21 22 22 23 23 24 23 24 24 25 25 25 25 25 26 27 28 30 31 32 34 36 37 39 41 43 44 45 45 47
17 15 15 15 17 17 17 19 21 21 22 24 23 24 23 23 25 27 29 29 30 29 29 30 31 31 32 32 33 34 35 37 38 39 40 42 42 43 44 46 47 49 49 51
22 20 20 19 20 20 19 22 25 28 28 26 28 28 29 29 29 30 32 33 33 33 33 34 35 36 37 37 39 40 41 41 41 42 42 42 43 45 46 47 48 48 47 45
23 24 26 25 24 25 27 29 30 29 33 33 30 29 30 30 31 32 33 34 34 36 36 37 38 39 40 41 42 43 43 43 42 42 43 43 44 45 45 45 45 45 44 45
22 24 26 26 27 28 30 29 29 31 32 34 34 32 32 32 33 34 35 37 38 38 39 40 41 41 42 43 44 45 46 46 45 45 44 45 46 48 49 49 48 50 50 49
26 28 29 30 30 33 35 36 36 37 37 39 39 38 37 37 38 38 39 40 41 42 42 43 43 44 44 45 46 47 48 48 48 47 47 48 49 51 51 51 51 51 50 49
33 34 34 34 36 38 39 39 39 38 37 37 37 38 39 39 39 40 40 41 42 43 43 44 45 46 46 47 48 49 50 50 49 49 49 50 50 50 49 49 48 48 49 50
31 31 32 33 34 35 36 37 39 40 42 43 43 43 43 43 43 44 45 45 46 46 47 47 48 48 48 49 49 48 49 49 50 50 51 50 51 51 52 51 52 52 52 53
35 36 37 37 38 38 39 40 41 43 44 44 43 42 41 41 41 42 43 45 47 48 50 50 50 50 49 49 50 50 51 51 53 54 55 54 54 53 54 54 55 55 55 56
42 43 44 44 45 45 45 45 46 46 46 46 46 46 46 46 46 46 46 47 46 46 46 46 46 47 48 48 50 51 52 53 54 55 55 56 56 57 57 56 56 56 56 56
43 44 45 46 47 48 48 49 49 48 48 48 47 47 48 48 48 48 49 49 49 50 50 51 52 52 53 54 54 55 56 57 57 57 57 57 57 56 56 56 55 55 55 55

GFSNGP_500_spd_108.txt.gz
Wind_Speed
16 18 20 21 23 23 23 23 24 24 24 30 28 30 31 33 38 42 43 44 46 47 51 40 37 35 33 39 47 49 47 45 44 40 39 34 32 30 27 23 19 16 15 16
19 19 20 21 20 21 22 23 23 24 25 27 31 29 26 25 33 41 42 42 46 49 42 37 28 27 28 37 47 48 47 46 39 36 36 33 34 32 29 26 22 18 15 14
11 12 15 20 21 21 20 20 20 22 25 25 28 28 23 21 26 28 28 30 39 31 32 36 36 30 34 38 40 46 44 38 33 34 36 35 36 34 32 29 24 23 21 18
10 13 17 21 21 23 23 23 22 21 21 24 22 27 29 25 25 24 27 32 32 29 30 14 47 29 41 41 43 39 41 38 33 34 35 36 36 36 33 30 27 24 23 23
12 13 14 16 19 22 24 22 21 23 21 22 22 22 25 26 23 24 22 22 25 28 25 10 36 25 36 45 43 41 37 37 34 32 34 37 40 37 34 30 28 29 31 27
14 12 12 10 13 20 23 22 22 22 21 18 16 19 20 18 21 23 19 22 18 21 27 15 29 33 39 39 40 40 37 38 39 37 35 34 41 39 36 35 36 35 28 27
7 15 14 14 16 22 22 21 22 20 21 20 17 16 17 17 19 20 16 16 17 11 15 16 19 41 43 39 38 43 45 41 35 34 33 38 38 43 40 37 38 35 36 34
6 12 17 22 16 16 19 19 19 17 15 14 10 9 10 13 12 13 12 11 12 13 12 13 22 20 40 43 41 33 19 29 40 39 26 24 28 26 25 20 21 24 26 27
10 10 17 17 13 13 16 16 15 13 12 10 8 8 8 9 11 11 7 5 10 11 9 12 19 8 19 27 23 30 27 28 35 36 25 24 24 24 23 26 27 27 29 29
12 8 10 17 15 12 13 14 15 16 15 11 9 8 9 10 10 8 9 7 2 9 10 10 12 10 12 24 21 20 24 25 26 24 22 22 22 24 28 30 29 28 31 35
11 14 15 15 16 13 12 11 11 9 8 9 10 11 11 13 12 13 10 11 6 1 1 5 10 9 20 21 17 20 21 21 22 20 22 24 23 25 28 31 30 31 33 35
12 15 17 12 14 15 14 10 9 9 8 9 9 11 16 13 12 11 18 13 11 12 13 13 6 7 8 8 11 13 14 18 20 22 21 22 24 26 29 31 29 28 26 28
7 7 15 18 13 16 13 9 13 10 12 13 16 12 14 14 15 15 16 16 18 19 18 15 13 12 12 11 12 12 13 17 20 24 26 28 30 30 29 28 27 28 30 32
10 6 10 23 19 21 16 14 15 14 14 13 13 14 12 13 14 16 18 20 21 21 21 19 17 16 16 19 19 21 21 21 22 24 25 25 27 30 32 31 31 33 34 35
14 11 7 10 11 15 15 17 18 18 18 17 14 13 14 16 16 19 20 19 20 21 22 21 20 19 18 19 19 19 22 22 23 23 22 23 24 25 26 29 30 31 32 32
16 15 13 10 15 15 15 14 15 16 16 15 16 16 15 15 16 17 18 19 19 20 21 21 21 21 21 20 20 21 22 23 23 24 25 25 26 27 29 31 32 33 35 36
15 18 19 18 18 17 16 15 16 18 18 17 18 21 21 23 20 20 21 22 22 23 23 23 23 24 26 26 26 24 24 25 26 27 28 29 31 33 34 35 37 38 39 41
20 19 17 19 21 21 21 21 22 22 22 23 23 24 24 24 26 27 27 27 28 28 28 28 29 29 30 30 31 32 32 33 34 35 36 37 38 39 40 40 40 41 42 43
22 24 24 23 23 22 22 23 24 25 26 27 28 29 30 31 31 31 33 33 32 33 33 33 33 34 35 36 37 37 38 38 39 40 41 42 42 42 42 42 43 43 44 45
22 25 26 27 27 26 26 27 27 28 29 30 32 33 35 36 36 36 36 35 35 37 38 38 38 39 40 41 42 42 42 43 44 44 46 46 46 45 45 45 45 45 46 47
19 18 21 24 27 29 30 30 31 32 32 30 32 33 34 33 35 36 35 36 35 36 37 39 40 42 43 43 44 44 45 46 46 47 47 48 48 48 47 47 48 48 49 50
28 29 31 29 28 29 32 35 37 36 36 35 36 37 37 38 39 39 40 41 41 41 40 41 42 43 44 45 46 46 47 48 49 50 50 50 51 51 51 51 51 52 53 53
28 29 29 30 32 34 35 36 37 38 38 39 41 43 44 44 44 44 43 44 45 45 46 46 46 47 48 48 49 49 50 50 51 51 52 52 53 53 53 53 53 53 53 53
31 33 35 37 38 38 38 39 39 40 41 41 42 43 43 43 45 45 46 47 48 49 49 49 50 50 50 51 51 52 52 53 54 54 54 55 54 54 55 54 54 54 55 56
41 42 43 44 44 43 44 44 44 44 45 45 46 46 46 47 48 48 47 47 47 48 48 48 49 50 51 52 53 54 55 55 55 55 54 54 54 55 56 56 56 57 57 57
40 42 44 45 46 46 47 47 48 48 49 49 50 51 51 52 52 52 52 52 52 52 52 52 52 53 53 53 53 53 53 53 53 54 54 55 55 56 57 58 58 59 60 60
41 42 43 44 45 46 47 48 49 50 51 51 52 51 51 51 52 52 52 52 53 53 54 54 55 55 56 56 57 57 58 58 58 59 59 59 60 60 60 60 60 60 60 59

GFSNGP_500_spd_111.txt.gz
Wind_Speed
16 20 21 17 15 19 21 19 19 18 20 21 20 21 22 21 23 25 31 34 36 36 39 41 42 43 46 47 43 45 43 43 48 54 55 55 52 44 38 36 31 31 26 25
15 6 13 15 18 18 18 20 23 28 18 35 25 21 23 23 24 26 31 35 37 39 42 43 45 48 49 46 47 37 39 43 49 54 55 53 46 43 37 37 34 32 28 24
13 12 14 13 14 15 15 17 18 16 23 23 20 19 22 23 24 26 31 38 39 41 44 49 46 42 39 32 29 36 39 43 50 51 46 44 46 44 38 36 37 34 30 26
14 10 13 17 15 16 20 22 19 20 20 21 22 20 22 23 25 28 30 35 35 37 41 39 32 30 31 33 35 34 36 45 47 47 48 48 49 38 39 38 36 35 31 29
14 16 15 16 17 20 22 23 20 22 23 21 20 20 22 25 29 32 31 32 34 36 36 38 38 33 35 35 28 33 37 45 46 46 44 45 43 38 39 39 36 34 31 28
12 16 15 16 18 21 22 25 24 24 22 22 23 22 24 24 25 29 29 31 31 26 26 28 30 33 34 37 34 37 37 43 47 47 43 33 32 36 38 38 38 35 31 31
14 14 20 20 19 16 20 16 25 25 23 23 23 23 23 23 24 24 26 27 28 23 20 20 17 20 28 37 44 36 37 38 36 44 39 35 34 35 37 38 43 46 45 41
14 14 17 18 19 20 18 27 21 25 26 23 22 21 20 20 23 24 25 23 20 17 16 11 5 9 11 42 39 45 41 43 51 45 42 39 36 37 40 31 35 38 37 38
15 7 16 19 20 29 19 14 23 23 19 19 18 17 18 19 19 20 19 15 13 15 15 11 4 5 6 14 36 38 37 35 49 51 48 43 42 45 51 31 18 23 24 25
14 14 11 19 17 15 12 16 17 17 17 17 16 17 17 18 19 17 14 15 8 5 9 13 11 11 12 10 15 31 31 34 25 20 22 30 38 29 31 29 27 25 24 25
19 16 14 14 15 18 13 14 17 17 18 19 20 20 19 18 18 15 16 13 12 7 4 8 9 3 13 13 12 15 29 26 31 34 33 31 33 29 26 25 26 26 27 29
20 14 16 12 14 14 16 17 17 16 14 14 16 15 16 19 18 18 17 21 14 13 11 10 12 10 3 11 16 14 14 22 29 32 34 29 28 27 28 28 28 29 30 32
12 12 10 16 15 16 16 18 17 19 16 15 15 16 15 16 19 18 18 16 14 15 18 18 14 14 12 6 9 12 11 15 17 19 19 20 21 25 26 26 27 29 30 32
8 7 11 14 19 14 17 21 16 17 17 16 15 15 19 17 18 17 17 17 16 16 17 17 16 16 16 15 13 12 13 15 15 16 18 21 25 28 30 32 32 31 31 32
7 9 6 7 16 23 20 24 20 17 19 20 17 17 17 18 18 18 18 18 18 18 18 17 16 17 17 18 17 18 18 18 20 21 22 24 26 27 29 31 32 34 36 36
11 13 13 9 7 13 15 17 20 21 21 22 21 22 21 19 17 18 19 18 19 20 20 20 19 19 18 20 19 18 18 19 21 21 22 23 23 24 26 27 28 29 31 32
15 16 18 19 15 14 14 16 23 23 23 23 23 23 22 21 22 21 20 19 20 21 22 22 22 22 22 22 23 23 23 23 23 24 24 24 26 28 29 29 31 32 33 35
19 21 21 22 23 23 22 21 22 23 23 24 25 26 26 25 26 26 25 25 25 26 26 28 28 27 27 28 29 29 29 30 31 32 32 34 34 34 35 36 37 38 38 40
26 25 24 26 25 25 26 27 28 30 30 31 30 30 30 31 32 33 33 33 33 34 34 34 34 35 35 35 35 35 36 36 37 37 38 39 39 40 41 41 42 43 44 45
29 27 25 26 28 30 31 30 31 31 31 32 32 33 34 34 36 36 37 38 38 40 41 40 41 42 42 41 40 40 40 41 41 42 44 44 45 45 46 47 48 49 49 49
29 30 30 27 26 27 27 31 34 37 38 38 39 40 39 39 39 39 40 40 40 40 41 42 44 43 41 42 42 44 44 45 45 47 48 49 50 51 51 51 51 51 52 53
33 33 34 35 34 32 33 33 33 36 38 40 41 42 42 43 43 43 41 41 41 41 40 39 40 41 42 42 43 45 46 47 47 48 49 50 51 52 53 54 54 54 55 56
31 33 34 34 34 34 35 36 37 38 39 40 41 42 43 44 44 44 45 45 45 45 45 46 47 48 48 49 49 50 51 51 52 52 52 52 53 54 54 55 55 56 56 57
33 35 38 39 41 43 43 44 44 44 45 45 46 46 46 46 46 47 48 48 49 49 50 51 52 53 53 54 55 56 56 56 56 56 56 56 56 56 56 56 57 58 58 58
33 37 40 44 46 48 49 50 50 51 50 50 50 50 50 51 51 51 51 52 53 53 53 53 54 54 55 55 55 56 56 57 57 57 57 56 56 56 57 57 57 56 56 57
36 38 41 43 46 48 49 51 52 53 54 54 55 55 55 55 56 56 57 57 58 58 57 57 57 57 57 58 58 58 59 59 58 58 59 59 59 59 59 58 58 59 59 60
34 37 40 44 46 49 50 52 53 53 54 54 54 55 56 57 57 58 58 58 58 58 58 58 58 59 59 59 60 60 60 60 60 61 61 61 62 62 62 62 63 63 62 62

GFSNGP_500_spd_114.txt.gz
Wind_Speed
12 10 13 15 24 25 24 20 26 17 14 18 25 29 28 12 15 20 22 23 22 23 25 29 31 34 36 37 37 39 39 40 40 39 41 36 37 41 44 43 41 39 33 30
5 11 3 11 18 19 14 17 21 24 24 21 17 30 27 18 20 20 22 22 21 23 24 26 29 33 35 38 39 42 43 45 43 43 42 43 42 46 47 43 41 37 35 32
10 12 6 12 7 7 9 9 10 26 20 24 35 16 19 23 20 21 21 21 22 25 27 29 32 36 38 42 44 45 45 46 45 44 44 46 49 49 46 43 42 38 37 34
11 8 8 14 12 13 15 23 25 28 28 28 26 20 19 21 22 21 21 22 25 27 29 31 36 41 43 44 47 47 42 36 33 36 39 39 41 43 42 42 42 40 41 37
11 11 11 12 13 14 16 19 18 17 20 24 23 22 22 21 21 22 23 25 25 27 29 33 37 39 38 37 39 38 43 36 30 33 37 36 39 41 44 44 45 43 42 37
15 14 15 19 14 16 19 20 22 27 22 24 24 24 25 25 24 23 24 24 27 30 32 30 34 37 39 37 31 33 37 29 25 26 33 35 40 44 44 45 44 47 38 37
14 16 19 18 18 18 21 25 28 22 27 28 26 26 25 25 25 24 25 26 26 25 28 30 33 30 35 31 27 31 29 29 23 26 31 41 41 40 42 48 59 41 39 38
13 17 19 23 25 22 20 29 26 16 26 26 27 25 25 26 25 25 26 25 26 26 28 27 25 25 16 12 17 35 43 37 30 34 32 32 35 34 48 46 38 37 41 42
8 10 9 20 19 23 27 19 33 25 22 22 24 23 21 20 21 22 24 25 23 20 22 21 22 18 14 9 10 27 41 42 42 37 44 39 43 47 44 39 36 39 43 39
17 15 13 11 16 23 20 14 23 24 25 26 24 21 21 21 23 23 22 21 17 16 10 6 5 8 9 8 5 6 23 33 45 54 57 46 51 54 46 42 41 39 37 33
20 22 21 17 13 16 19 12 16 16 17 18 18 20 21 22 23 23 20 18 17 18 16 10 10 9 10 6 7 7 4 24 29 32 40 41 38 44 42 48 47 37 31 30
19 20 21 18 20 18 16 19 17 14 15 18 18 18 19 22 22 20 19 19 19 22 18 16 15 13 12 8 5 8 12 12 14 23 30 32 34 36 36 35 34 36 34 33
13 17 20 20 18 16 16 16 18 17 16 19 17 17 18 19 18 16 17 19 19 18 18 18 18 17 15 12 8 8 12 14 18 18 20 19 26 31 33 36 37 35 34 33
9 7 12 15 15 20 17 16 17 18 16 21 20 17 17 16 17 17 17 17 17 16 15 14 13 14 14 15 15 10 7 9 11 13 10 14 17 22 24 28 32 27 26 27
7 9 8 8 8 12 17 16 16 22 18 18 24 23 19 17 15 17 17 18 16 16 16 15 13 12 13 12 14 14 16 15 13 13 13 14 17 20 21 24 27 29 31 31
12 11 11 11 9 7 10 15 19 20 24 23 22 24 23 22 21 21 20 18 16 16 16 16 15 14 14 15 15 15 15 14 15 16 18 19 22 23 24 24 25 25 26 28
13 12 16 17 15 15 12 13 15 19 21 25 25 25 26 26 25 24 24 23 23 21 19 19 18 18 17 17 18 18 19 19 19 19 20 21 22 23 24 25 27 28 29 30
24 20 20 21 20 22 22 21 21 21 21 21 26 28 29 29 28 27 27 27 27 27 26 24 23 24 24 24 24 23 23 25 26 25 25 26 28 29 30 31 32 33 33 34
36 38 38 35 29 26 26 26 26 27 27 28 28 28 29 31 32 32 33 33 33 33 33 33 32 31 33 33 32 33 33 32 32 32 32 33 33 34 35 36 38 38 39 41
33 31 33 33 32 32 31 30 31 33 33 33 32 32 34 36 37 37 37 37 37 37 38 38 38 39 38 39 40 41 41 42 42 41 41 40 40 40 41 41 42 43 45 46
26 28 31 32 33 34 35 34 33 34 35 37 39 40 41 42 43 43 43 43 43 44 43 43 43 43 42 40 40 41 43 43 45 46 46 44 44 44 45 46 46 47 49 50
23 25 28 34 36 38 39 40 41 41 39 38 37 37 40 43 45 47 49 49 49 49 49 48 47 46 44 43 43 43 43 43 43 44 44 45 46 47 47 48 50 51 52 53
26 28 30 33 36 39 42 44 44 45 44 44 44 44 44 43 45 46 48 50 50 51 51 52 51 50 50 48 48 48 48 47 47 48 49 50 50 51 52 54 56 57 58 58
29 30 33 35 38 41 44 46 48 50 51 51 51 51 51 51 52 51 51 51 51 51 52 53 53 53 53 52 52 52 52 53 53 54 54 54 53 54 55 56 57 58 59 60
33 35 36 38 40 42 45 48 50 52 54 55 56 56 57 57 57 56 55 54 54 55 55 55 55 55 55 55 56 56 56 57 57 57 57 56 56 57 57 57 57 57 56 56
31 32 34 36 38 41 44 47 50 52 54 55 57 57 57 58 57 57 57 57 57 57 58 58 59 59 59 60 60 60 61 61 61 60 60 60 60 60 60 60 60 60 59 59
33 32 34 35 36 39 42 41 41 42 45 47 50 52 54 56 57 58 59 59 59 59 59 59 59 59 60 60 61 61 61 61 61 61 61 61 61 61 61 61 61 61 60 60

GFSNGP_500_spd_117.txt.gz
Wind_Speed
10 8 5 22 21 24 24 22 21 18 24 26 19 16 40 28 22 22 26 29 29 23 24 26 27 27 29 31 35 34 37 39 40 42 42 40 41 43 42 42 42 43 39 37
8 8 13 15 21 25 25 26 23 29 17 19 22 21 16 28 27 20 14 20 22 23 26 25 25 28 31 29 32 36 38 38 39 39 40 39 38 38 41 40 43 44 41 38
5 8 14 6 12 11 18 22 26 30 19 25 22 23 11 25 15 13 16 20 21 23 24 24 25 25 25 29 31 34 35 38 39 39 40 41 41 42 41 43 45 45 44 39
3 4 1 6 16 11 11 8 18 26 20 22 26 23 20 11 18 17 19 20 20 22 24 24 25 27 28 30 32 35 37 40 43 46 45 43 44 46 48 50 48 47 43 39
6 6 7 4 5 11 13 10 11 16 21 22 31 28 22 13 17 20 20 21 22 24 25 25 28 30 31 34 37 38 39 41 43 41 34 32 32 38 45 47 48 44 43 39
8 10 10 9 9 10 15 17 17 18 20 25 25 22 21 20 21 21 23 25 26 26 27 27 26 29 32 35 38 39 41 39 40 34 33 32 29 34 36 37 37 41 40 39
11 12 13 12 13 12 17 18 19 20 11 16 23 23 24 24 24 25 26 27 27 27 27 26 27 29 29 32 30 34 33 29 29 30 24 25 30 35 35 35 37 40 40 41
13 15 14 17 19 19 18 21 21 24 28 24 24 23 26 26 27 28 28 26 26 24 23 26 27 28 29 28 29 28 31 27 24 31 28 24 26 34 34 35 36 43 43 42
13 11 12 18 20 19 23 26 24 20 21 29 26 25 22 24 27 26 24 23 22 22 22 21 20 21 24 28 23 24 15 18 32 39 39 25 26 32 37 30 36 42 47 42
14 17 18 12 10 14 18 21 23 30 25 29 31 27 29 26 25 24 23 23 22 21 20 18 17 17 16 14 14 13 13 10 14 33 38 41 31 33 39 42 39 39 45 51
14 17 15 17 16 16 16 16 17 17 20 29 32 28 24 24 23 22 22 22 21 19 20 19 20 19 18 18 13 9 6 2 9 16 30 38 36 40 46 49 39 47 41 38
18 19 18 17 18 21 20 21 19 19 19 20 20 17 19 19 20 19 19 18 19 19 19 19 22 23 24 24 14 11 9 6 5 8 19 29 38 46 47 41 39 40 35 37
17 19 18 15 16 18 18 19 20 20 19 18 17 19 18 17 17 17 16 16 16 15 17 17 16 15 13 13 13 13 7 3 4 6 14 20 28 35 43 44 41 42 45 43
16 13 11 10 13 15 17 22 21 17 19 17 18 16 19 16 15 15 16 15 15 16 14 14 14 14 11 11 13 15 16 9 5 7 5 9 13 20 27 30 34 36 38 33
18 15 13 8 8 9 12 16 19 16 16 20 18 15 17 20 19 18 16 15 14 15 15 14 13 12 12 11 12 12 13 17 17 14 9 5 5 12 15 15 17 20 23 24
18 16 15 13 10 9 9 10 11 12 14 15 21 22 22 21 22 23 21 20 19 17 15 15 14 13 13 13 13 12 12 13 13 14 15 14 14 12 12 13 14 15 17 19
20 20 18 15 13 17 16 16 16 15 15 17 20 21 23 25 24 27 27 25 24 23 22 22 20 21 19 17 16 15 15 15 15 15 17 17 17 17 16 16 18 20 21 22
25 24 27 26 26 29 27 24 22 23 22 23 22 22 24 27 28 29 28 29 29 28 27 27 27 26 26 25 23 23 23 22 21 20 20 21 21 23 23 23 24 25 26 27
23 27 31 33 36 37 38 37 32 28 27 29 28 28 28 28 29 29 31 32 33 33 33 33 33 33 33 32 31 30 30 30 29 29 30 30 30 29 29 30 30 32 33 34
21 24 27 30 31 32 32 32 32 31 31 30 30 32 34 34 35 36 36 37 37 38 37 37 37 37 38 37 37 36 36 36 36 36 37 38 39 40 39 39 39 39 40 41
24 25 25 25 25 26 30 33 34 35 35 34 36 35 35 37 38 40 43 44 43 43 44 43 43 43 43 43 43 42 41 40 42 41 40 40 42 43 43 44 44 45 45 45
27 28 29 29 30 30 31 33 36 38 40 42 43 43 43 43 43 43 43 43 45 46 48 49 49 49 49 50 49 50 49 48 47 46 45 44 44 44 44 44 45 45 46 47
27 28 29 30 31 33 35 37 39 41 43 45 47 48 49 48 48 48 48 50 49 47 46 47 48 50 51 51 51 51 51 50 50 50 50 50 50 50 51 51 50 51 52 53
27 29 31 33 34 36 38 39 41 43 45 46 47 49 51 53 54 55 55 55 55 54 55 54 54 53 53 54 55 55 54 53 54 54 55 55 56 56 55 55 55 55 56 57
27 33 35 32 31 32 34 37 39 42 44 47 49 51 52 53 55 56 57 57 58 58 59 60 60 60 60 59 59 59 58 57 57 57 56 56 57 56 57 57 58 59 59 59
32 34 36 32 31 32 32 36 40 40 42 45 47 49 50 52 54 56 57 58 58 59 59 59 59 60 60 61 62 62 62 62 62 61 61 61 61 61 60 60 61 61 61 61
33 34 36 39 37 35 38 39 35 35 35 34 34 35 36 37 38 39 40 43 46 48 52 54 56 57 59 59 60 60 61 61 61 61 61 61 61 61 61 60 61 60 60 61

GFSNGP_500_spd_120.txt.gz
Wind_Speed
4 10 8 11 17 16 15 12 7 10 9 7 3 14 12 19 40 37 28 21 21 22 28 32 34 38 37 32 33 33 35 35 36 36 38 38 39 42 41 41 40 41 43 44
3 5 10 11 16 19 20 17 22 16 11 3 9 19 18 25 21 27 23 18 20 20 19 22 22 26 29 35 38 33 34 34 34 36 39 41 41 43 42 43 43 44 44 46
7 6 12 8 8 17 19 21 22 23 18 16 9 16 19 18 15 23 25 22 19 18 19 20 23 25 29 32 34 37 38 35 38 40 41 42 41 41 41 40 41 42 43 45
8 5 1 4 10 22 13 12 11 26 21 21 20 13 13 11 17 13 16 15 17 20 23 25 27 30 30 31 33 33 32 35 39 40 42 42 41 41 40 41 41 42 44 46
10 10 3 4 2 9 10 6 1 8 19 17 14 18 21 19 13 12 14 16 21 23 25 28 30 30 30 31 33 32 32 34 36 39 41 41 42 44 48 48 48 48 53 52
10 11 12 10 10 6 7 9 10 11 14 13 11 19 20 21 19 15 15 17 19 21 24 26 29 29 30 32 33 34 36 37 39 39 41 43 45 47 46 45 48 53 53 59
11 12 12 13 13 12 12 10 12 14 16 16 17 12 16 18 17 17 19 22 24 24 24 27 28 30 33 34 36 38 39 38 42 43 41 42 38 35 29 33 40 38 44 49
9 14 14 12 16 17 18 18 15 16 17 19 24 24 18 20 20 22 25 26 27 26 28 28 28 29 31 32 33 34 34 32 35 36 33 34 28 25 28 30 36 35 42 38
9 9 9 12 13 17 20 18 19 21 21 21 23 23 23 21 22 22 23 26 28 28 27 26 26 28 26 24 24 27 27 25 25 27 29 27 30 29 32 30 34 36 38 38
12 13 15 15 16 13 10 15 18 19 21 22 25 23 25 28 27 25 28 26 27 26 25 23 24 23 24 23 22 22 24 21 24 21 27 33 33 30 29 30 33 42 30 32
21 18 17 17 18 17 16 16 14 16 18 20 20 24 28 27 27 30 27 26 25 24 23 22 21 20 23 24 23 25 28 19 17 19 12 19 34 37 35 35 37 38 39 41
16 16 19 19 19 19 17 17 18 18 21 22 20 20 24 26 28 24 22 21 20 19 18 19 17 17 17 19 25 26 18 16 14 7 4 11 20 34 33 41 42 45 46 49
17 17 17 17 17 18 18 18 18 15 21 20 25 23 21 24 21 20 18 17 17 15 14 15 12 12 12 13 12 12 12 9 5 7 7 9 16 29 33 40 43 42 38 44
20 18 15 17 18 13 12 15 17 17 18 20 22 25 21 19 21 21 18 16 15 14 14 15 14 13 12 11 11 12 14 15 12 5 1 3 8 20 25 28 31 32 33 35
19 18 16 16 17 16 10 8 8 12 16 20 21 23 23 20 19 21 20 16 16 15 15 15 14 14 14 14 14 13 12 12 15 15 11 7 4 7 13 17 23 27 28 32
20 18 18 17 17 17 17 13 12 10 12 15 16 16 16 17 19 21 22 20 20 19 20 19 18 17 16 15 15 17 17 15 13 12 14 15 15 12 9 6 11 15 18 19
23 21 20 20 23 21 20 20 19 19 18 19 19 20 20 21 22 22 23 23 24 24 24 23 22 23 22 22 21 19 19 18 16 15 15 16 15 16 16 16 15 15 15 15
12 14 18 22 25 27 29 30 30 30 29 28 26 24 25 26 25 25 26 27 28 29 28 28 28 27 28 28 26 26 25 24 23 22 21 20 19 19 19 20 20 20 20 21
14 16 17 20 22 25 28 30 32 34 35 34 33 31 30 30 30 30 29 30 30 31 31 32 33 33 34 34 34 33 32 32 31 29 28 28 27 26 26 26 26 27 28 28
20 21 22 24 25 25 26 27 27 28 32 33 33 34 35 36 35 34 34 35 35 35 36 37 38 38 39 39 39 39 39 38 37 36 34 33 33 32 33 35 36 36 37 37
24 25 26 27 27 28 30 30 30 31 31 32 34 37 38 39 39 40 40 40 39 39 40 41 42 44 45 46 45 46 46 45 44 43 42 41 39 39 39 39 39 39 40 41
23 23 24 25 26 28 30 32 33 34 35 36 38 40 41 42 43 44 45 45 46 46 47 46 46 45 45 46 47 49 50 51 51 50 50 49 49 49 47 46 46 46 45 46
21 24 25 26 29 32 33 33 35 36 38 39 40 41 43 44 45 47 49 49 50 51 51 51 51 51 51 51 50 49 49 50 51 52 52 51 50 51 51 51 51 51 50 51
20 23 24 28 32 34 31 30 31 33 34 36 38 40 43 45 47 47 48 50 51 52 53 54 55 57 57 56 57 56 56 55 54 53 53 53 53 53 53 53 55 56 57 58
26 29 30 31 32 35 37 34 31 33 33 33 34 36 38 42 45 48 50 51 52 52 53 54 55 56 57 58 59 60 61 62 61 60 59 59 59 58 58 57 57 57 58 58
29 30 31 33 33 33 37 40 36 36 35 33 32 32 31 32 33 35 36 38 40 42 44 46 48 51 54 56 58 58 59 60 60 61 61 61 61 61 62 62 63 63 64 64
31 32 33 33 34 34 34 38 40 37 37 35 34 32 30 29 28 28 29 30 31 32 34 35 37 39 41 44 47 50 53 55 57 59 60 60 60 60 61 62 62 63 64 65

GFSNGP_500_spd_123.txt.gz
Wind_Speed
4 2 11 12 11 19 18 17 5 2 4 6 4 15 20 37 33 34 28 33 31 38 34 33 40 39 39 41 42 43 44 46 47 40 43 44 42 42 42 46 47 49 47 46
4 6 5 14 11 19 16 15 12 14 3 7 11 11 9 4 19 20 25 40 36 19 24 19 20 20 28 33 35 41 44 46 44 39 37 39 42 45 41 41 39 42 46 46
11 9 5 5 6 11 12 13 16 17 12 6 7 7 7 11 2 10 15 22 23 19 20 25 19 20 22 25 26 31 31 34 35 39 36 36 37 36 40 39 40 42 42 42
11 2 4 3 4 6 4 13 10 13 12 13 16 10 10 4 3 3 7 16 14 16 18 20 21 22 23 26 28 32 31 33 34 34 37 38 43 40 37 38 39 39 40 42
10 11 4 1 3 4 10 6 14 6 5 9 7 10 10 15 11 10 7 10 11 16 18 20 23 26 28 30 33 34 35 36 35 35 36 36 38 39 36 36 36 37 40 41
10 11 15 15 15 13 13 9 10 10 8 6 7 8 7 8 12 16 17 19 17 19 20 22 24 25 27 30 33 34 35 35 35 35 34 34 37 39 39 40 41 43 43 45
11 12 12 15 16 14 14 13 12 12 12 11 11 12 12 8 10 11 12 15 18 22 25 27 27 26 28 30 32 33 35 37 36 37 38 38 37 39 40 42 45 47 48 50
8 9 13 13 16 16 17 17 18 17 17 16 14 15 18 18 14 14 15 17 20 22 24 24 26 28 31 32 32 35 38 38 39 38 40 41 41 43 46 46 48 47 42 43
6 7 9 10 12 12 14 18 20 19 19 21 21 21 21 21 20 20 21 20 19 18 21 26 28 29 30 32 33 34 37 36 39 42 41 43 42 45 45 40 39 36 26 28
18 15 10 10 13 15 18 18 16 15 18 20 21 23 24 23 24 26 27 27 27 27 30 33 32 30 30 31 32 33 32 31 26 28 34 34 37 39 37 36 36 37 32 30
24 23 22 22 23 22 20 18 19 20 18 17 17 18 20 23 23 27 26 27 27 29 29 29 29 28 29 29 30 30 29 32 33 33 29 26 27 32 37 37 35 37 28 34
23 22 20 19 17 17 19 21 21 22 23 23 22 21 19 22 26 25 23 22 22 23 26 24 24 24 23 23 24 23 23 21 24 30 25 20 20 19 31 42 37 36 37 43
22 22 21 20 19 19 20 23 24 25 24 23 22 21 20 23 26 26 24 22 20 20 22 21 20 19 19 20 19 17 17 14 17 19 17 16 8 9 19 31 39 36 40 36
21 19 19 20 19 18 18 21 21 19 20 23 23 19 19 23 25 27 24 25 23 20 21 21 20 20 18 20 20 19 17 16 15 18 14 9 12 11 2 11 23 29 35 39
19 18 18 18 19 19 18 17 19 15 14 15 18 21 21 23 24 25 26 25 24 22 22 21 19 18 18 19 19 18 18 18 17 17 18 16 11 7 10 10 8 18 26 33
19 19 20 20 21 22 21 19 19 20 21 18 17 18 17 20 22 25 25 24 25 26 26 25 24 22 23 22 21 20 19 18 18 18 19 19 18 17 13 8 12 15 17 19
12 14 18 22 23 24 24 26 27 27 28 27 27 25 24 23 23 24 25 26 27 28 29 29 28 27 26 26 25 25 25 24 23 22 21 20 20 18 18 19 16 13 13 17
6 8 10 11 14 17 21 24 27 30 32 34 34 34 34 32 30 29 30 30 30 31 32 32 32 32 31 31 29 29 28 28 28 27 27 26 26 25 22 20 20 21 20 19
12 15 17 19 20 22 24 26 27 28 28 30 33 36 36 36 37 37 36 34 34 36 36 36 35 35 35 36 36 35 34 33 33 33 33 32 32 30 28 27 26 25 25 25
18 21 23 24 25 25 26 27 28 30 31 32 33 33 35 37 39 39 40 41 41 40 39 39 39 39 39 39 39 38 38 38 38 39 39 38 38 37 36 33 31 30 30 29
20 20 20 21 23 25 26 29 32 34 36 37 37 37 38 40 41 41 43 44 45 46 46 45 44 43 43 43 43 43 43 44 46 46 46 46 46 45 44 43 42 40 38 38
16 18 21 22 24 25 26 30 34 34 33 34 35 37 39 40 42 44 46 47 48 49 50 51 51 50 49 48 48 48 48 48 49 50 50 50 50 49 49 49 49 49 48 48
16 16 18 20 23 26 28 29 32 36 33 32 33 33 35 37 39 41 42 45 47 50 51 52 53 54 55 55 55 54 53 53 53 53 53 53 53 52 52 52 53 53 52 52
17 21 24 27 29 29 30 31 31 35 36 29 29 29 30 31 33 35 38 41 44 47 49 51 53 54 56 57 58 59 60 60 59 59 58 58 58 58 57 56 55 54 54 54
22 24 26 28 30 32 32 33 32 33 36 38 33 31 31 30 30 30 30 31 33 36 39 42 46 50 53 56 57 58 59 60 62 62 63 63 63 63 63 62 62 60 60 59
22 25 27 29 30 31 33 33 33 34 35 36 38 37 35 34 33 31 31 29 28 29 30 31 33 35 38 41 45 49 52 56 58 60 62 62 63 63 64 64 64 64 64 63
21 22 24 27 29 30 32 33 34 34 34 35 36 38 38 36 36 35 34 33 32 30 28 28 28 29 30 31 33 36 40 42 45 48 52 55 58 60 61 62 62 62 61 61

GFSNGP_500_spd_126.txt.gz
Wind_Speed
12 9 12 19 13 15 12 12 17 12 12 9 7 8 9 4 23 17 21 19 24 24 23 23 23 28 32 34 36 32 28 30 32 36 38 37 40 43 47 50 52 48 48 50
17 7 5 15 16 16 17 11 12 12 16 7 14 12 8 11 6 14 16 33 34 37 40 33 39 37 33 38 36 34 33 31 28 35 43 47 47 47 43 42 47 47 41 40
18 9 2 4 8 7 5 4 6 9 8 10 16 13 11 10 2 5 5 18 22 40 43 24 19 14 18 28 32 28 28 27 34 29 34 34 37 41 44 45 39 42 43 40
11 4 9 8 8 7 3 5 4 5 4 7 7 9 7 10 9 9 5 1 14 14 12 8 10 16 18 19 18 22 23 27 30 33 35 33 32 32 33 36 40 38 38 42
7 11 6 5 6 5 3 5 6 13 11 10 8 9 8 9 10 13 9 7 5 5 6 8 12 14 18 19 23 26 28 29 31 32 33 34 33 31 32 33 33 35 35 38
8 13 18 15 13 12 13 10 9 10 10 9 9 7 4 5 7 8 8 4 6 9 10 12 14 16 19 21 24 27 29 30 31 33 35 35 34 31 32 33 35 33 32 35
12 11 15 19 19 18 14 13 11 11 12 12 11 9 10 9 9 9 10 10 11 14 15 17 18 20 23 26 29 31 32 32 33 34 39 41 37 37 36 33 33 36 39 38
13 13 11 12 14 17 16 15 16 17 17 17 17 16 14 13 13 12 14 14 14 15 17 19 20 21 23 25 27 29 30 32 36 36 39 44 44 42 42 39 36 36 37 37
15 11 12 13 12 13 14 16 15 13 15 19 20 21 21 21 20 19 19 19 20 21 19 19 21 23 26 29 30 34 34 36 39 41 42 45 49 49 45 45 41 39 41 39
20 20 19 19 20 20 21 21 20 19 18 18 18 20 21 22 23 25 25 25 25 26 27 28 28 29 32 34 37 37 38 38 39 42 44 45 47 50 52 48 47 43 44 44
24 24 22 19 17 17 19 19 21 22 22 23 23 22 20 20 21 23 25 24 27 28 30 34 35 34 36 35 34 33 35 35 35 34 37 40 36 36 43 45 42 45 45 41
23 23 23 21 20 19 18 17 17 20 22 26 27 28 27 26 25 25 24 25 26 27 25 28 29 28 29 31 33 32 33 33 32 31 32 34 34 36 34 29 36 41 40 40
23 23 22 22 21 21 21 20 20 20 20 22 26 30 30 29 28 27 27 28 27 28 27 26 26 25 25 27 27 25 24 27 28 27 27 24 23 26 29 26 23 32 38 40
23 22 21 20 19 19 20 20 21 20 21 24 25 24 29 33 31 28 28 27 27 27 28 27 25 26 25 25 26 24 22 24 26 28 26 24 20 16 15 17 17 17 30 45
21 20 18 18 19 19 20 21 22 22 22 23 24 25 26 28 28 29 28 28 27 28 28 28 27 27 27 26 24 22 22 22 24 24 24 23 22 22 21 12 7 9 9 18
11 12 14 16 19 21 23 23 25 27 28 28 28 28 28 28 28 27 27 25 26 27 29 29 31 31 31 31 29 28 27 26 27 25 24 23 22 20 20 23 20 8 6 9
8 9 10 10 10 12 15 19 24 28 30 32 33 34 34 35 35 33 33 32 30 28 29 30 31 33 34 34 33 32 31 29 29 30 28 27 27 26 24 23 22 26 23 12
5 8 11 14 16 18 20 23 25 27 29 31 32 34 35 35 36 38 39 39 38 37 34 34 35 35 36 37 36 36 35 35 33 33 33 32 29 29 27 27 26 25 24 27
11 15 18 20 21 22 24 25 27 28 30 32 34 36 37 38 39 39 38 40 42 43 43 41 40 39 40 40 41 41 41 40 39 37 37 37 35 32 31 31 29 28 28 26
17 20 20 20 21 23 25 26 27 29 30 32 35 36 38 40 41 41 42 43 42 42 45 47 48 47 45 44 45 45 45 44 43 42 41 40 39 38 36 35 35 34 33 32
18 17 18 20 21 21 21 22 25 27 31 34 37 31 30 32 33 36 39 42 44 46 46 47 47 49 51 52 51 50 50 49 48 48 47 46 45 44 43 42 43 43 43 42
15 17 17 17 19 22 24 26 29 30 30 30 35 34 31 30 30 31 34 36 39 42 45 48 49 50 51 53 54 55 55 55 55 54 53 51 50 49 49 49 48 47 48 48
16 14 16 19 23 25 26 28 29 30 30 31 31 33 33 28 28 29 29 29 31 34 37 41 45 48 51 52 54 55 56 58 59 59 59 58 56 55 55 54 53 53 52 52
12 15 18 21 23 24 25 27 28 30 30 30 30 31 32 34 33 31 31 30 27 27 26 28 32 38 43 48 52 54 56 57 59 60 61 62 62 62 62 61 60 59 58 57
14 16 18 19 20 22 24 25 26 28 29 30 31 31 32 32 33 35 36 33 33 31 29 28 27 27 29 32 36 40 45 50 55 58 60 61 62 62 63 64 64 65 64 64
14 15 16 19 21 23 24 25 26 28 30 31 32 33 33 34 34 34 34 35 36 34 34 32 31 30 29 28 30 32 34 37 40 44 47 51 55 59 61 62 63 64 65 65
14 17 21 23 25 26 27 28 29 30 31 33 33 34 35 35 36 35 35 35 35 36 37 37 36 35 34 33 31 30 31 32 34 36 39 41 43 46 49 51 54 57 60 62